Observation data for Rotan on 10/14/2019      Previous  Date       Current Mesonet Observations  Soil Data  Daily Summary Page  Observations in Plain Language
KRO1 140500Z 20010KT 21/06 A2995 RMK A01 T02140058  RH  036%=      5-min Rain = 0
KRO1 140501Z 20011KT 21/06 A2995 RMK A01 T02140058  RH  036%=      5-min Rain = 0
KRO1 140502Z 20011KT 21/06 A2995 RMK A01 T02140058  RH  036%=      5-min Rain = 0
KRO1 140503Z 20010KT 21/06 A2995 RMK A01 T02140058  RH  036%=      5-min Rain = 0
KRO1 140504Z 20010KT 21/06 A2995 RMK A01 T02140058  RH  036%=      5-min Rain = 0
KRO1 140505Z 20011KT 21/06 A2995 RMK A01 T02140058  RH  036%=      5-min Rain = 0
KRO1 140506Z 20011KT 21/06 A2995 RMK A01 T02140058  RH  036%=      5-min Rain = 0
KRO1 140507Z 20010KT 21/06 A2995 RMK A01 T02140058  RH  036%=      5-min Rain = 0
KRO1 140508Z 20010KT 21/06 A2995 RMK A01 T02140058  RH  036%=      5-min Rain = 0
KRO1 140509Z 20010KT 21/06 A2995 RMK A01 T02140058  RH  036%=      5-min Rain = 0
KRO1 140510Z 20010KT 21/06 A2995 RMK A01 T02140059  RH  036%=      5-min Rain = 0
KRO1 140511Z 20010KT 21/06 A2995 RMK A01 T02130059  RH  036%=      5-min Rain = 0
KRO1 140512Z 20010KT 21/06 A2995 RMK A01 T02130058  RH  036%=      5-min Rain = 0
KRO1 140513Z 20010KT 21/06 A2995 RMK A01 T02130059  RH  037%=      5-min Rain = 0
KRO1 140514Z 21010KT 21/06 A2995 RMK A01 T02130059  RH  037%=      5-min Rain = 0
KRO1 140515Z 21010KT 21/06 A2995 RMK A01 T02130059  RH  037%=      5-min Rain = 0
KRO1 140516Z 21010KT 21/06 A2995 RMK A01 T02130059  RH  037%=      5-min Rain = 0
KRO1 140517Z 21009KT 21/06 A2995 RMK A01 T02130059  RH  037%=      5-min Rain = 0
KRO1 140518Z 21010KT 21/06 A2995 RMK A01 T02130059  RH  037%=      5-min Rain = 0
KRO1 140519Z 20009KT 21/06 A2995 RMK A01 T02130059  RH  037%=      5-min Rain = 0
KRO1 140520Z 21009KT 21/06 A2995 RMK A01 T02130059  RH  037%=      5-min Rain = 0
KRO1 140521Z 21009KT 21/06 A2995 RMK A01 T02130059  RH  037%=      5-min Rain = 0
KRO1 140522Z 21009KT 21/06 A2995 RMK A01 T02130059  RH  037%=      5-min Rain = 0
KRO1 140523Z 20008KT 21/06 A2995 RMK A01 T02130059  RH  037%=      5-min Rain = 0
KRO1 140524Z 21008KT 21/06 A2995 RMK A01 T02130060  RH  037%=      5-min Rain = 0
KRO1 140525Z 20010KT 21/06 A2995 RMK A01 T02120059  RH  037%=      5-min Rain = 0
KRO1 140526Z 20009KT 21/06 A2995 RMK A01 T02130059  RH  037%=      5-min Rain = 0
KRO1 140527Z 21009KT 21/06 A2995 RMK A01 T02130059  RH  037%=      5-min Rain = 0
KRO1 140528Z 21009KT 21/06 A2996 RMK A01 T02130060  RH  037%=      5-min Rain = 0
KRO1 140529Z 20009KT 21/06 A2996 RMK A01 T02130060  RH  037%=      5-min Rain = 0
KRO1 140530Z 20008KT 21/06 A2996 RMK A01 T02130060  RH  037%=      5-min Rain = 0
KRO1 140531Z 20009KT 21/06 A2996 RMK A01 T02130060  RH  037%=      5-min Rain = 0
KRO1 140532Z 20010KT 21/06 A2995 RMK A01 T02130060  RH  037%=      5-min Rain = 0
KRO1 140533Z 20010KT 21/06 A2995 RMK A01 T02130060  RH  037%=      5-min Rain = 0
KRO1 140534Z 20009KT 21/06 A2995 RMK A01 T02130060  RH  037%=      5-min Rain = 0
KRO1 140535Z 20010KT 21/06 A2995 RMK A01 T02130060  RH  037%=      5-min Rain = 0
KRO1 140536Z 21010KT 21/06 A2995 RMK A01 T02130060  RH  037%=      5-min Rain = 0
KRO1 140537Z 20009KT 21/06 A2995 RMK A01 T02130060  RH  037%=      5-min Rain = 0
KRO1 140538Z 20010KT 21/06 A2995 RMK A01 T02130060  RH  037%=      5-min Rain = 0
KRO1 140539Z 21009KT 21/06 A2995 RMK A01 T02140060  RH  037%=      5-min Rain = 0
KRO1 140540Z 21009KT 21/06 A2995 RMK A01 T02140060  RH  037%=      5-min Rain = 0
KRO1 140541Z 21009KT 21/06 A2995 RMK A01 T02140060  RH  037%=      5-min Rain = 0
KRO1 140542Z 21009KT 21/06 A2995 RMK A01 T02140060  RH  037%=      5-min Rain = 0
KRO1 140543Z 21009KT 21/06 A2995 RMK A01 T02140060  RH  037%=      5-min Rain = 0
KRO1 140544Z 21008KT 21/06 A2995 RMK A01 T02140061  RH  037%=      5-min Rain = 0
KRO1 140545Z 22009KT 21/06 A2995 RMK A01 T02140061  RH  037%=      5-min Rain = 0
KRO1 140546Z 21008KT 21/06 A2995 RMK A01 T02140060  RH  037%=      5-min Rain = 0
KRO1 140547Z 22009KT 21/06 A2995 RMK A01 T02140060  RH  037%=      5-min Rain = 0
KRO1 140548Z 21008KT 21/06 A2995 RMK A01 T02140060  RH  037%=      5-min Rain = 0
KRO1 140549Z 21009KT 21/06 A2995 RMK A01 T02140060  RH  037%=      5-min Rain = 0
KRO1 140550Z 22010KT 22/06 A2995 RMK A01 T02150061  RH  037%=      5-min Rain = 0
KRO1 140551Z 22010KT 22/06 A2995 RMK A01 T02150061  RH  037%=      5-min Rain = 0
KRO1 140552Z 22009KT 22/06 A2995 RMK A01 T02160061  RH  036%=      5-min Rain = 0
KRO1 140553Z 22009KT 22/06 A2995 RMK A01 T02160061  RH  036%=      5-min Rain = 0
KRO1 140554Z 21010KT 22/06 A2995 RMK A01 T02160061  RH  036%=      5-min Rain = 0
KRO1 140555Z 22009KT 22/06 A2995 RMK A01 T02160061  RH  036%=      5-min Rain = 0
KRO1 140556Z 21011KT 22/06 A2995 RMK A01 T02160061  RH  037%=      5-min Rain = 0
KRO1 140557Z 21011KT 22/06 A2995 RMK A01 T02160061  RH  037%=      5-min Rain = 0
KRO1 140558Z 22010KT 22/06 A2995 RMK A01 T02160061  RH  037%=      5-min Rain = 0
KRO1 140559Z 22011KT 22/06 A2995 RMK A01 T02160062  RH  037%=      5-min Rain = 0
KRO1 140600Z 22011KT 22/06 A2995 RMK A01 T02150061  RH  037%=      5-min Rain = 0
KRO1 140601Z 22012KT 22/06 A2995 RMK A01 T02160061  RH  037%=      5-min Rain = 0
KRO1 140602Z 22010KT 22/06 A2995 RMK A01 T02160061  RH  036%=      5-min Rain = 0
KRO1 140603Z 22009KT 22/06 A2995 RMK A01 T02160061  RH  037%=      5-min Rain = 0
KRO1 140604Z 22009KT 22/06 A2995 RMK A01 T02150062  RH  037%=      5-min Rain = 0
KRO1 140605Z 22010KT 22/06 A2995 RMK A01 T02150062  RH  037%=      5-min Rain = 0
KRO1 140606Z 22010KT 22/06 A2996 RMK A01 T02150061  RH  037%=      5-min Rain = 0
KRO1 140607Z 22008KT 22/06 A2996 RMK A01 T02150061  RH  037%=      5-min Rain = 0
KRO1 140608Z 22009KT 22/06 A2995 RMK A01 T02150062  RH  037%=      5-min Rain = 0
KRO1 140609Z 22009KT 21/06 A2995 RMK A01 T02140062  RH  037%=      5-min Rain = 0
KRO1 140610Z 22009KT 21/06 A2995 RMK A01 T02140062  RH  037%=      5-min Rain = 0
KRO1 140611Z 22007KT 21/06 A2995 RMK A01 T02140062  RH  037%=      5-min Rain = 0
KRO1 140612Z 22008KT 21/06 A2995 RMK A01 T02140062  RH  037%=      5-min Rain = 0
KRO1 140613Z 22008KT 21/06 A2995 RMK A01 T02130062  RH  037%=      5-min Rain = 0
KRO1 140614Z 22009KT 21/06 A2995 RMK A01 T02130062  RH  037%=      5-min Rain = 0
KRO1 140615Z 22008KT 21/06 A2995 RMK A01 T02140062  RH  037%=      5-min Rain = 0
KRO1 140616Z 22009KT 21/06 A2995 RMK A01 T02140062  RH  037%=      5-min Rain = 0
KRO1 140617Z 22008KT 22/06 A2995 RMK A01 T02150062  RH  037%=      5-min Rain = 0
KRO1 140618Z 22008KT 21/06 A2995 RMK A01 T02140062  RH  037%=      5-min Rain = 0
KRO1 140619Z 22010KT 21/06 A2995 RMK A01 T02140062  RH  037%=      5-min Rain = 0
KRO1 140620Z 22009KT 21/06 A2995 RMK A01 T02130062  RH  037%=      5-min Rain = 0
KRO1 140621Z 22010KT 21/06 A2995 RMK A01 T02140062  RH  037%=      5-min Rain = 0
KRO1 140622Z 21008KT 21/06 A2995 RMK A01 T02140062  RH  037%=      5-min Rain = 0
KRO1 140623Z 22009KT 21/06 A2995 RMK A01 T02140063  RH  037%=      5-min Rain = 0
KRO1 140624Z 21009KT 21/06 A2995 RMK A01 T02130062  RH  037%=      5-min Rain = 0
KRO1 140625Z 22008KT 21/06 A2995 RMK A01 T02140062  RH  037%=      5-min Rain = 0
KRO1 140626Z 22009KT 21/06 A2995 RMK A01 T02130062  RH  038%=      5-min Rain = 0
KRO1 140627Z 22009KT 21/06 A2995 RMK A01 T02120062  RH  038%=      5-min Rain = 0
KRO1 140628Z 22007KT 21/06 A2995 RMK A01 T02120062  RH  038%=      5-min Rain = 0
KRO1 140629Z 21008KT 21/06 A2995 RMK A01 T02120063  RH  038%=      5-min Rain = 0
KRO1 140630Z 22008KT 21/06 A2995 RMK A01 T02120063  RH  038%=      5-min Rain = 0
KRO1 140631Z 22009KT 21/06 A2995 RMK A01 T02120062  RH  038%=      5-min Rain = 0
KRO1 140632Z 22009KT 21/06 A2995 RMK A01 T02120062  RH  038%=      5-min Rain = 0
KRO1 140633Z 22009KT 21/06 A2995 RMK A01 T02120062  RH  038%=      5-min Rain = 0
KRO1 140634Z 22008KT 21/06 A2995 RMK A01 T02120062  RH  038%=      5-min Rain = 0
KRO1 140635Z 22009KT 21/06 A2995 RMK A01 T02120063  RH  038%=      5-min Rain = 0
KRO1 140636Z 22008KT 21/06 A2995 RMK A01 T02120063  RH  038%=      5-min Rain = 0
KRO1 140637Z 22008KT 21/06 A2995 RMK A01 T02110063  RH  038%=      5-min Rain = 0
KRO1 140638Z 22008KT 21/06 A2995 RMK A01 T02110063  RH  038%=      5-min Rain = 0
KRO1 140639Z 22008KT 21/06 A2995 RMK A01 T02110063  RH  038%=      5-min Rain = 0
KRO1 140640Z 22008KT 21/06 A2995 RMK A01 T02110063  RH  038%=      5-min Rain = 0
KRO1 140641Z 22008KT 21/06 A2995 RMK A01 T02110063  RH  038%=      5-min Rain = 0
KRO1 140642Z 22009KT 21/06 A2995 RMK A01 T02100063  RH  038%=      5-min Rain = 0
KRO1 140643Z 22008KT 21/06 A2995 RMK A01 T02100063  RH  038%=      5-min Rain = 0
KRO1 140644Z 22008KT 21/06 A2995 RMK A01 T02100063  RH  038%=      5-min Rain = 0
KRO1 140645Z 22009KT 21/06 A2995 RMK A01 T02100063  RH  038%=      5-min Rain = 0
KRO1 140646Z 22009KT 21/06 A2995 RMK A01 T02100063  RH  038%=      5-min Rain = 0
KRO1 140647Z 22009KT 21/06 A2995 RMK A01 T02100063  RH  038%=      5-min Rain = 0
KRO1 140648Z 22009KT 21/06 A2995 RMK A01 T02100063  RH  038%=      5-min Rain = 0
KRO1 140649Z 22009KT 21/06 A2995 RMK A01 T02100063  RH  038%=      5-min Rain = 0
KRO1 140650Z 22008KT 21/06 A2995 RMK A01 T02100063  RH  039%=      5-min Rain = 0
KRO1 140651Z 22008KT 21/06 A2995 RMK A01 T02100063  RH  039%=      5-min Rain = 0
KRO1 140652Z 22010KT 21/06 A2995 RMK A01 T02090063  RH  039%=      5-min Rain = 0
KRO1 140653Z 22008KT 21/06 A2995 RMK A01 T02090063  RH  039%=      5-min Rain = 0
KRO1 140654Z 21010KT 21/06 A2995 RMK A01 T02090063  RH  039%=      5-min Rain = 0
KRO1 140655Z 21010KT 21/06 A2995 RMK A01 T02090063  RH  039%=      5-min Rain = 0
KRO1 140656Z 21010KT 21/06 A2995 RMK A01 T02090063  RH  039%=      5-min Rain = 0
KRO1 140657Z 21009KT 21/06 A2995 RMK A01 T02090063  RH  039%=      5-min Rain = 0
KRO1 140658Z 21010KT 21/06 A2995 RMK A01 T02090063  RH  039%=      5-min Rain = 0
KRO1 140659Z 22009KT 21/06 A2995 RMK A01 T02090063  RH  039%=      5-min Rain = 0
KRO1 140700Z 22009KT 21/06 A2995 RMK A01 T02090064  RH  039%=      5-min Rain = 0
KRO1 140701Z 22010KT 21/06 A2995 RMK A01 T02090064  RH  039%=      5-min Rain = 0
KRO1 140702Z 22009KT 21/06 A2995 RMK A01 T02090063  RH  039%=      5-min Rain = 0
KRO1 140703Z 22010KT 21/06 A2995 RMK A01 T02100064  RH  039%=      5-min Rain = 0
KRO1 140704Z 22010KT 21/06 A2995 RMK A01 T02110063  RH  038%=      5-min Rain = 0
KRO1 140705Z 22011KT 21/06 A2995 RMK A01 T02110064  RH  038%=      5-min Rain = 0
KRO1 140706Z 22009KT 21/06 A2995 RMK A01 T02120064  RH  038%=      5-min Rain = 0
KRO1 140707Z 22012KT 21/06 A2995 RMK A01 T02110064  RH  038%=      5-min Rain = 0
KRO1 140708Z 22011KT 21/06 A2995 RMK A01 T02120064  RH  038%=      5-min Rain = 0
KRO1 140709Z 22012KT 21/06 A2995 RMK A01 T02110063  RH  038%=      5-min Rain = 0
KRO1 140710Z 22010KT 21/06 A2995 RMK A01 T02120064  RH  038%=      5-min Rain = 0
KRO1 140711Z 22010KT 21/06 A2995 RMK A01 T02120064  RH  038%=      5-min Rain = 0
KRO1 140712Z 22009KT 21/06 A2995 RMK A01 T02120064  RH  038%=      5-min Rain = 0
KRO1 140713Z 22010KT 21/06 A2995 RMK A01 T02110064  RH  038%=      5-min Rain = 0
KRO1 140714Z 22011KT 21/06 A2995 RMK A01 T02100064  RH  038%=      5-min Rain = 0
KRO1 140715Z 22010KT 21/06 A2995 RMK A01 T02100064  RH  039%=      5-min Rain = 0
KRO1 140716Z 22011KT 21/06 A2995 RMK A01 T02100064  RH  039%=      5-min Rain = 0
KRO1 140717Z 22012KT 21/06 A2995 RMK A01 T02100064  RH  038%=      5-min Rain = 0
KRO1 140718Z 21009KT 21/06 A2995 RMK A01 T02110064  RH  038%=      5-min Rain = 0
KRO1 140719Z 22010KT 21/06 A2995 RMK A01 T02110063  RH  038%=      5-min Rain = 0
KRO1 140720Z 22009KT 21/06 A2995 RMK A01 T02120064  RH  038%=      5-min Rain = 0
KRO1 140721Z 22010KT 21/06 A2995 RMK A01 T02120064  RH  038%=      5-min Rain = 0
KRO1 140722Z 22010KT 21/06 A2995 RMK A01 T02110064  RH  038%=      5-min Rain = 0
KRO1 140723Z 22008KT 21/06 A2995 RMK A01 T02110064  RH  038%=      5-min Rain = 0
KRO1 140724Z 22010KT 21/06 A2995 RMK A01 T02110064  RH  038%=      5-min Rain = 0
KRO1 140725Z 22010KT 21/06 A2995 RMK A01 T02110064  RH  038%=      5-min Rain = 0
KRO1 140726Z 22010KT 21/06 A2995 RMK A01 T02110064  RH  038%=      5-min Rain = 0
KRO1 140727Z 22008KT 21/06 A2995 RMK A01 T02110064  RH  038%=      5-min Rain = 0
KRO1 140728Z 22008KT 21/06 A2995 RMK A01 T02110064  RH  038%=      5-min Rain = 0
KRO1 140729Z 22009KT 21/06 A2995 RMK A01 T02100064  RH  039%=      5-min Rain = 0
KRO1 140730Z 21009KT 21/06 A2995 RMK A01 T02100064  RH  039%=      5-min Rain = 0
KRO1 140731Z 22009KT 21/06 A2995 RMK A01 T02100064  RH  039%=      5-min Rain = 0
KRO1 140732Z 22009KT 21/07 A2995 RMK A01 T02100065  RH  039%=      5-min Rain = 0
KRO1 140733Z 22009KT 21/07 A2995 RMK A01 T02100065  RH  039%=      5-min Rain = 0
KRO1 140734Z 22009KT 21/06 A2995 RMK A01 T02090064  RH  039%=      5-min Rain = 0
KRO1 140735Z 22009KT 21/06 A2995 RMK A01 T02090064  RH  039%=      5-min Rain = 0
KRO1 140736Z 21009KT 21/07 A2995 RMK A01 T02090065  RH  039%=      5-min Rain = 0
KRO1 140737Z 21009KT 21/07 A2995 RMK A01 T02090065  RH  039%=      5-min Rain = 0
KRO1 140738Z 22008KT 21/07 A2995 RMK A01 T02090065  RH  039%=      5-min Rain = 0
KRO1 140739Z 22009KT 21/07 A2995 RMK A01 T02090065  RH  039%=      5-min Rain = 0
KRO1 140740Z 22009KT 21/06 A2995 RMK A01 T02080064  RH  039%=      5-min Rain = 0
KRO1 140741Z 22009KT 21/07 A2995 RMK A01 T02080065  RH  039%=      5-min Rain = 0
KRO1 140742Z 22009KT 21/07 A2995 RMK A01 T02080065  RH  039%=      5-min Rain = 0
KRO1 140743Z 21009KT 21/07 A2995 RMK A01 T02080065  RH  039%=      5-min Rain = 0
KRO1 140744Z 21009KT 21/07 A2995 RMK A01 T02080065  RH  039%=      5-min Rain = 0
KRO1 140745Z 22009KT 21/07 A2994 RMK A01 T02080065  RH  040%=      5-min Rain = 0
KRO1 140746Z 22009KT 21/07 A2994 RMK A01 T02070065  RH  039%=      5-min Rain = 0
KRO1 140747Z 21010KT 21/06 A2994 RMK A01 T02070064  RH  039%=      5-min Rain = 0
KRO1 140748Z 21009KT 21/07 A2994 RMK A01 T02090065  RH  039%=      5-min Rain = 0
KRO1 140749Z 21009KT 21/07 A2994 RMK A01 T02090065  RH  039%=      5-min Rain = 0
KRO1 140750Z 22009KT 21/07 A2994 RMK A01 T02090065  RH  039%=      5-min Rain = 0
KRO1 140751Z 21010KT 21/07 A2994 RMK A01 T02080065  RH  039%=      5-min Rain = 0
KRO1 140752Z 21008KT 21/07 A2994 RMK A01 T02080065  RH  039%=      5-min Rain = 0
KRO1 140753Z 21009KT 21/07 A2994 RMK A01 T02080065  RH  039%=      5-min Rain = 0
KRO1 140754Z 21009KT 21/07 A2994 RMK A01 T02080065  RH  039%=      5-min Rain = 0
KRO1 140755Z 22009KT 21/07 A2994 RMK A01 T02080065  RH  039%=      5-min Rain = 0
KRO1 140756Z 22009KT 21/07 A2994 RMK A01 T02090065  RH  039%=      5-min Rain = 0
KRO1 140757Z 21008KT 21/07 A2994 RMK A01 T02080065  RH  039%=      5-min Rain = 0
KRO1 140758Z 22009KT 21/07 A2995 RMK A01 T02080065  RH  039%=      5-min Rain = 0
KRO1 140759Z 22009KT 21/07 A2995 RMK A01 T02080065  RH  039%=      5-min Rain = 0
KRO1 140800Z 22008KT 21/07 A2995 RMK A01 T02080065  RH  040%=      5-min Rain = 0
KRO1 140801Z 22010KT 21/07 A2995 RMK A01 T02070065  RH  040%=      5-min Rain = 0
KRO1 140802Z 22009KT 21/07 A2995 RMK A01 T02080065  RH  040%=      5-min Rain = 0
KRO1 140803Z 22009KT 21/07 A2995 RMK A01 T02080065  RH  039%=      5-min Rain = 0
KRO1 140804Z 22009KT 21/07 A2995 RMK A01 T02080065  RH  039%=      5-min Rain = 0
KRO1 140805Z 22008KT 21/07 A2995 RMK A01 T02080065  RH  039%=      5-min Rain = 0
KRO1 140806Z 22009KT 21/07 A2995 RMK A01 T02080065  RH  039%=      5-min Rain = 0
KRO1 140807Z 22010KT 21/07 A2995 RMK A01 T02080065  RH  039%=      5-min Rain = 0
KRO1 140808Z 22011KT 21/07 A2995 RMK A01 T02080065  RH  039%=      5-min Rain = 0
KRO1 140809Z 22009KT 21/07 A2995 RMK A01 T02090065  RH  039%=      5-min Rain = 0
KRO1 140810Z 22009KT 21/07 A2995 RMK A01 T02090065  RH  039%=      5-min Rain = 0
KRO1 140811Z 22009KT 21/07 A2995 RMK A01 T02090066  RH  039%=      5-min Rain = 0
KRO1 140812Z 22010KT 21/07 A2995 RMK A01 T02080066  RH  039%=      5-min Rain = 0
KRO1 140813Z 22011KT 21/07 A2995 RMK A01 T02080065  RH  039%=      5-min Rain = 0
KRO1 140814Z 22009KT 21/07 A2995 RMK A01 T02080065  RH  039%=      5-min Rain = 0
KRO1 140815Z 22011KT 21/07 A2995 RMK A01 T02080065  RH  039%=      5-min Rain = 0
KRO1 140816Z 22011KT 21/07 A2995 RMK A01 T02080065  RH  039%=      5-min Rain = 0
KRO1 140817Z 22011KT 21/07 A2994 RMK A01 T02080065  RH  039%=      5-min Rain = 0
KRO1 140818Z 21011KT 21/07 A2994 RMK A01 T02080065  RH  039%=      5-min Rain = 0
KRO1 140819Z 21011KT 21/07 A2994 RMK A01 T02090065  RH  039%=      5-min Rain = 0
KRO1 140820Z 22011KT 21/07 A2994 RMK A01 T02090065  RH  039%=      5-min Rain = 0
KRO1 140821Z 21011KT 21/07 A2994 RMK A01 T02090065  RH  039%=      5-min Rain = 0
KRO1 140822Z 21010KT 21/07 A2994 RMK A01 T02090065  RH  039%=      5-min Rain = 0
KRO1 140823Z 21010KT 21/07 A2994 RMK A01 T02090066  RH  039%=      5-min Rain = 0
KRO1 140824Z 21011KT 21/07 A2994 RMK A01 T02080066  RH  040%=      5-min Rain = 0
KRO1 140825Z 21011KT 21/07 A2994 RMK A01 T02080066  RH  039%=      5-min Rain = 0
KRO1 140826Z 21010KT 21/07 A2994 RMK A01 T02080065  RH  039%=      5-min Rain = 0
KRO1 140827Z 21010KT 21/07 A2994 RMK A01 T02080066  RH  039%=      5-min Rain = 0
KRO1 140828Z 21010KT 21/07 A2994 RMK A01 T02080066  RH  040%=      5-min Rain = 0
KRO1 140829Z 21010KT 21/07 A2994 RMK A01 T02080066  RH  040%=      5-min Rain = 0
KRO1 140830Z 21011KT 21/07 A2994 RMK A01 T02080066  RH  040%=      5-min Rain = 0
KRO1 140831Z 21009KT 21/07 A2994 RMK A01 T02080066  RH  040%=      5-min Rain = 0
KRO1 140832Z 21010KT 21/07 A2994 RMK A01 T02080066  RH  040%=      5-min Rain = 0
KRO1 140833Z 21010KT 21/07 A2994 RMK A01 T02070066  RH  040%=      5-min Rain = 0
KRO1 140834Z 22010KT 21/07 A2994 RMK A01 T02070066  RH  040%=      5-min Rain = 0
KRO1 140835Z 22009KT 21/07 A2994 RMK A01 T02060066  RH  040%=      5-min Rain = 0
KRO1 140836Z 22009KT 21/07 A2994 RMK A01 T02060066  RH  040%=      5-min Rain = 0
KRO1 140837Z 22010KT 21/07 A2994 RMK A01 T02060066  RH  040%=      5-min Rain = 0
KRO1 140838Z 22010KT 21/07 A2994 RMK A01 T02060066  RH  040%=      5-min Rain = 0
KRO1 140839Z 22010KT 21/07 A2994 RMK A01 T02060066  RH  040%=      5-min Rain = 0
KRO1 140840Z 22010KT 21/07 A2994 RMK A01 T02060066  RH  040%=      5-min Rain = 0
KRO1 140841Z 21011KT 21/07 A2994 RMK A01 T02060066  RH  040%=      5-min Rain = 0
KRO1 140842Z 21010KT 21/07 A2994 RMK A01 T02060066  RH  040%=      5-min Rain = 0
KRO1 140843Z 21010KT 21/07 A2994 RMK A01 T02070066  RH  040%=      5-min Rain = 0
KRO1 140844Z 21010KT 21/07 A2994 RMK A01 T02070067  RH  040%=      5-min Rain = 0
KRO1 140845Z 22011KT 21/07 A2994 RMK A01 T02070067  RH  040%=      5-min Rain = 0
KRO1 140846Z 22011KT 21/07 A2994 RMK A01 T02070067  RH  040%=      5-min Rain = 0
KRO1 140847Z 22011KT 21/07 A2994 RMK A01 T02060066  RH  040%=      5-min Rain = 0
KRO1 140848Z 22011KT 21/07 A2994 RMK A01 T02070066  RH  040%=      5-min Rain = 0
KRO1 140849Z 22011KT 21/07 A2994 RMK A01 T02070066  RH  040%=      5-min Rain = 0
KRO1 140850Z 21011KT 21/07 A2994 RMK A01 T02070066  RH  040%=      5-min Rain = 0
KRO1 140851Z 21011KT 21/07 A2994 RMK A01 T02070066  RH  040%=      5-min Rain = 0
KRO1 140852Z 21011KT 21/07 A2993 RMK A01 T02070066  RH  040%=      5-min Rain = 0
KRO1 140853Z 21011KT 21/07 A2993 RMK A01 T02070066  RH  040%=      5-min Rain = 0
KRO1 140854Z 21011KT 21/07 A2993 RMK A01 T02070066  RH  040%=      5-min Rain = 0
KRO1 140855Z 21010KT 21/07 A2993 RMK A01 T02070066  RH  040%=      5-min Rain = 0
KRO1 140856Z 21011KT 21/07 A2993 RMK A01 T02060066  RH  040%=      5-min Rain = 0
KRO1 140857Z 21010KT 21/07 A2993 RMK A01 T02070066  RH  040%=      5-min Rain = 0
KRO1 140858Z 21010KT 21/07 A2993 RMK A01 T02070067  RH  040%=      5-min Rain = 0
KRO1 140859Z 21010KT 21/07 A2993 RMK A01 T02070067  RH  040%=      5-min Rain = 0
KRO1 140900Z 22010KT 21/07 A2993 RMK A01 T02070067  RH  040%=      5-min Rain = 0
KRO1 140901Z 22010KT 21/07 A2993 RMK A01 T02070067  RH  040%=      5-min Rain = 0
KRO1 140902Z 21009KT 21/07 A2993 RMK A01 T02060067  RH  040%=      5-min Rain = 0
KRO1 140903Z 22009KT 21/07 A2993 RMK A01 T02060067  RH  040%=      5-min Rain = 0
KRO1 140904Z 21009KT 21/07 A2993 RMK A01 T02060067  RH  041%=      5-min Rain = 0
KRO1 140905Z 21009KT 21/07 A2993 RMK A01 T02050067  RH  041%=      5-min Rain = 0
KRO1 140906Z 21010KT 21/07 A2993 RMK A01 T02050067  RH  041%=      5-min Rain = 0
KRO1 140907Z 21009KT 21/07 A2993 RMK A01 T02050067  RH  041%=      5-min Rain = 0
KRO1 140908Z 21010KT 21/07 A2993 RMK A01 T02050067  RH  041%=      5-min Rain = 0
KRO1 140909Z 21009KT 21/07 A2993 RMK A01 T02050067  RH  041%=      5-min Rain = 0
KRO1 140910Z 21009KT 21/07 A2993 RMK A01 T02050067  RH  041%=      5-min Rain = 0
KRO1 140911Z 21008KT 21/07 A2993 RMK A01 T02050067  RH  041%=      5-min Rain = 0
KRO1 140912Z 21009KT 21/07 A2993 RMK A01 T02050067  RH  041%=      5-min Rain = 0
KRO1 140913Z 21009KT 20/07 A2993 RMK A01 T02040068  RH  041%=      5-min Rain = 0
KRO1 140914Z 21009KT 20/07 A2993 RMK A01 T02040067  RH  041%=      5-min Rain = 0
KRO1 140915Z 21009KT 20/07 A2993 RMK A01 T02040067  RH  041%=      5-min Rain = 0
KRO1 140916Z 21009KT 20/07 A2993 RMK A01 T02040068  RH  041%=      5-min Rain = 0
KRO1 140917Z 21009KT 20/07 A2993 RMK A01 T02030067  RH  041%=      5-min Rain = 0
KRO1 140918Z 21009KT 20/07 A2993 RMK A01 T02030067  RH  041%=      5-min Rain = 0
KRO1 140919Z 21009KT 20/07 A2993 RMK A01 T02030067  RH  041%=      5-min Rain = 0
KRO1 140920Z 21009KT 20/07 A2993 RMK A01 T02030068  RH  041%=      5-min Rain = 0
KRO1 140921Z 21010KT 20/07 A2993 RMK A01 T02030068  RH  041%=      5-min Rain = 0
KRO1 140922Z 21010KT 20/07 A2993 RMK A01 T02040068  RH  041%=      5-min Rain = 0
KRO1 140923Z 21010KT 20/07 A2993 RMK A01 T02040068  RH  041%=      5-min Rain = 0
KRO1 140924Z 21011KT 21/07 A2993 RMK A01 T02050068  RH  041%=      5-min Rain = 0
KRO1 140925Z 21010KT 21/07 A2993 RMK A01 T02060068  RH  041%=      5-min Rain = 0
KRO1 140926Z 21010KT 21/07 A2993 RMK A01 T02060068  RH  041%=      5-min Rain = 0
KRO1 140927Z 21010KT 21/07 A2993 RMK A01 T02060068  RH  041%=      5-min Rain = 0
KRO1 140928Z 21010KT 21/07 A2993 RMK A01 T02070069  RH  041%=      5-min Rain = 0
KRO1 140929Z 21010KT 21/07 A2993 RMK A01 T02060069  RH  041%=      5-min Rain = 0
KRO1 140930Z 21009KT 21/07 A2993 RMK A01 T02060069  RH  041%=      5-min Rain = 0
KRO1 140931Z 21010KT 21/07 A2993 RMK A01 T02060069  RH  041%=      5-min Rain = 0
KRO1 140932Z 22009KT 21/07 A2993 RMK A01 T02060069  RH  041%=      5-min Rain = 0
KRO1 140933Z 21010KT 21/07 A2993 RMK A01 T02060069  RH  041%=      5-min Rain = 0
KRO1 140934Z 21010KT 21/07 A2993 RMK A01 T02060069  RH  041%=      5-min Rain = 0
KRO1 140935Z 21010KT 21/07 A2993 RMK A01 T02060069  RH  041%=      5-min Rain = 0
KRO1 140936Z 21010KT 21/07 A2993 RMK A01 T02060069  RH  041%=      5-min Rain = 0
KRO1 140937Z 21010KT 21/07 A2993 RMK A01 T02060069  RH  041%=      5-min Rain = 0
KRO1 140938Z 21009KT 21/07 A2993 RMK A01 T02060069  RH  041%=      5-min Rain = 0
KRO1 140939Z 21011KT 21/07 A2993 RMK A01 T02060069  RH  041%=      5-min Rain = 0
KRO1 140940Z 21011KT 21/07 A2993 RMK A01 T02060069  RH  041%=      5-min Rain = 0
KRO1 140941Z 21011KT 21/07 A2993 RMK A01 T02060069  RH  041%=      5-min Rain = 0
KRO1 140942Z 21011KT 21/07 A2993 RMK A01 T02070069  RH  041%=      5-min Rain = 0
KRO1 140943Z 21011KT 21/07 A2993 RMK A01 T02060069  RH  041%=      5-min Rain = 0
KRO1 140944Z 21012KT 21/07 A2993 RMK A01 T02060069  RH  041%=      5-min Rain = 0
KRO1 140945Z 21011KT 21/07 A2993 RMK A01 T02060068  RH  041%=      5-min Rain = 0
KRO1 140946Z 21009KT 21/07 A2993 RMK A01 T02070068  RH  041%=      5-min Rain = 0
KRO1 140947Z 20009KT 21/07 A2993 RMK A01 T02070069  RH  041%=      5-min Rain = 0
KRO1 140948Z 21008KT 21/07 A2993 RMK A01 T02060069  RH  041%=      5-min Rain = 0
KRO1 140949Z 21009KT 21/07 A2993 RMK A01 T02060069  RH  041%=      5-min Rain = 0
KRO1 140950Z 21009KT 21/07 A2993 RMK A01 T02050069  RH  041%=      5-min Rain = 0
KRO1 140951Z 21009KT 21/07 A2993 RMK A01 T02050069  RH  041%=      5-min Rain = 0
KRO1 140952Z 22008KT 21/07 A2993 RMK A01 T02050069  RH  041%=      5-min Rain = 0
KRO1 140953Z 21009KT 20/07 A2993 RMK A01 T02040069  RH  042%=      5-min Rain = 0
KRO1 140954Z 22008KT 20/07 A2993 RMK A01 T02040069  RH  042%=      5-min Rain = 0
KRO1 140955Z 22008KT 20/07 A2993 RMK A01 T02040069  RH  042%=      5-min Rain = 0
KRO1 140956Z 22007KT 20/07 A2993 RMK A01 T02040069  RH  042%=      5-min Rain = 0
KRO1 140957Z 22007KT 20/07 A2993 RMK A01 T02040070  RH  042%=      5-min Rain = 0
KRO1 140958Z 22007KT 20/07 A2993 RMK A01 T02030069  RH  042%=      5-min Rain = 0
KRO1 140959Z 22008KT 20/07 A2993 RMK A01 T02030069  RH  042%=      5-min Rain = 0
KRO1 141000Z 22007KT 20/07 A2993 RMK A01 T02030069  RH  042%=      5-min Rain = 0
KRO1 141001Z 22007KT 20/07 A2993 RMK A01 T02030069  RH  042%=      5-min Rain = 0
KRO1 141002Z 21007KT 20/07 A2994 RMK A01 T02030070  RH  042%=      5-min Rain = 0
KRO1 141003Z 21007KT 20/07 A2994 RMK A01 T02020070  RH  042%=      5-min Rain = 0
KRO1 141004Z 21007KT 20/07 A2994 RMK A01 T02020070  RH  042%=      5-min Rain = 0
KRO1 141005Z 21007KT 20/07 A2994 RMK A01 T02010070  RH  042%=      5-min Rain = 0
KRO1 141006Z 21007KT 20/07 A2994 RMK A01 T02010070  RH  043%=      5-min Rain = 0
KRO1 141007Z 20007KT 20/07 A2994 RMK A01 T02000070  RH  043%=      5-min Rain = 0
KRO1 141008Z 20007KT 20/07 A2993 RMK A01 T02000070  RH  043%=      5-min Rain = 0
KRO1 141009Z 19007KT 20/07 A2993 RMK A01 T01990070  RH  043%=      5-min Rain = 0
KRO1 141010Z 20007KT 20/07 A2993 RMK A01 T01990070  RH  043%=      5-min Rain = 0
KRO1 141011Z 19008KT 20/07 A2993 RMK A01 T01990070  RH  043%=      5-min Rain = 0
KRO1 141012Z 19007KT 20/07 A2993 RMK A01 T01990070  RH  043%=      5-min Rain = 0
KRO1 141013Z 18008KT 20/07 A2993 RMK A01 T01990070  RH  043%=      5-min Rain = 0
KRO1 141014Z 19008KT 20/07 A2993 RMK A01 T01980070  RH  043%=      5-min Rain = 0
KRO1 141015Z 19009KT 20/07 A2993 RMK A01 T01970070  RH  044%=      5-min Rain = 0
KRO1 141016Z 19009KT 20/07 A2993 RMK A01 T01970070  RH  044%=      5-min Rain = 0
KRO1 141017Z 19008KT 20/07 A2993 RMK A01 T01960070  RH  044%=      5-min Rain = 0
KRO1 141018Z 19008KT 20/07 A2993 RMK A01 T01960070  RH  044%=      5-min Rain = 0
KRO1 141019Z 19008KT 20/07 A2994 RMK A01 T01960070  RH  044%=      5-min Rain = 0
KRO1 141020Z 19007KT 20/07 A2994 RMK A01 T01950070  RH  044%=      5-min Rain = 0
KRO1 141021Z 19007KT 20/07 A2994 RMK A01 T01950070  RH  044%=      5-min Rain = 0
KRO1 141022Z 19007KT 19/07 A2994 RMK A01 T01940070  RH  044%=      5-min Rain = 0
KRO1 141023Z 19007KT 20/07 A2994 RMK A01 T01950070  RH  044%=      5-min Rain = 0
KRO1 141024Z 19007KT 19/07 A2994 RMK A01 T01940070  RH  044%=      5-min Rain = 0
KRO1 141025Z 19007KT 19/07 A2994 RMK A01 T01940070  RH  044%=      5-min Rain = 0
KRO1 141026Z 19007KT 19/07 A2994 RMK A01 T01940069  RH  044%=      5-min Rain = 0
KRO1 141027Z 19006KT 19/07 A2994 RMK A01 T01930069  RH  044%=      5-min Rain = 0
KRO1 141028Z 19006KT 19/07 A2994 RMK A01 T01920069  RH  045%=      5-min Rain = 0
KRO1 141029Z 19008KT 19/07 A2994 RMK A01 T01910069  RH  045%=      5-min Rain = 0
KRO1 141030Z 19009KT 19/07 A2994 RMK A01 T01910069  RH  045%=      5-min Rain = 0
KRO1 141031Z 19008KT 19/07 A2994 RMK A01 T01910069  RH  045%=      5-min Rain = 0
KRO1 141032Z 19009KT 19/07 A2994 RMK A01 T01900069  RH  045%=      5-min Rain = 0
KRO1 141033Z 19009KT 19/07 A2994 RMK A01 T01900069  RH  045%=      5-min Rain = 0
KRO1 141034Z 19009KT 19/07 A2994 RMK A01 T01900069  RH  045%=      5-min Rain = 0
KRO1 141035Z 19009KT 19/07 A2994 RMK A01 T01900069  RH  045%=      5-min Rain = 0
KRO1 141036Z 19008KT 19/07 A2994 RMK A01 T01900069  RH  045%=      5-min Rain = 0
KRO1 141037Z 19008KT 19/07 A2994 RMK A01 T01900068  RH  045%=      5-min Rain = 0
KRO1 141038Z 19007KT 19/07 A2994 RMK A01 T01900068  RH  045%=      5-min Rain = 0
KRO1 141039Z 19008KT 19/07 A2994 RMK A01 T01900068  RH  045%=      5-min Rain = 0
KRO1 141040Z 19007KT 19/07 A2994 RMK A01 T01900068  RH  045%=      5-min Rain = 0
KRO1 141041Z 19006KT 19/07 A2994 RMK A01 T01900068  RH  045%=      5-min Rain = 0
KRO1 141042Z 20006KT 19/07 A2994 RMK A01 T01890068  RH  045%=      5-min Rain = 0
KRO1 141043Z 19006KT 19/07 A2994 RMK A01 T01880068  RH  045%=      5-min Rain = 0
KRO1 141044Z 19006KT 19/07 A2994 RMK A01 T01870068  RH  046%=      5-min Rain = 0
KRO1 141045Z 20006KT 19/07 A2994 RMK A01 T01870068  RH  046%=      5-min Rain = 0
KRO1 141046Z 20006KT 19/07 A2994 RMK A01 T01870068  RH  046%=      5-min Rain = 0
KRO1 141047Z 20006KT 19/07 A2994 RMK A01 T01860068  RH  046%=      5-min Rain = 0
KRO1 141048Z 21007KT 19/07 A2994 RMK A01 T01860068  RH  046%=      5-min Rain = 0
KRO1 141049Z 21006KT 19/07 A2994 RMK A01 T01850068  RH  046%=      5-min Rain = 0
KRO1 141050Z 22005KT 19/07 A2994 RMK A01 T01850068  RH  046%=      5-min Rain = 0
KRO1 141051Z 22006KT 19/07 A2994 RMK A01 T01850068  RH  046%=      5-min Rain = 0
KRO1 141052Z 23006KT 19/07 A2994 RMK A01 T01850068  RH  046%=      5-min Rain = 0
KRO1 141053Z 23006KT 19/07 A2994 RMK A01 T01850068  RH  046%=      5-min Rain = 0
KRO1 141054Z 23007KT 18/07 A2994 RMK A01 T01840068  RH  046%=      5-min Rain = 0
KRO1 141055Z 23007KT 18/07 A2994 RMK A01 T01840068  RH  046%=      5-min Rain = 0
KRO1 141056Z 23007KT 19/07 A2994 RMK A01 T01850068  RH  046%=      5-min Rain = 0
KRO1 141057Z 23008KT 19/07 A2994 RMK A01 T01850068  RH  046%=      5-min Rain = 0
KRO1 141058Z 23008KT 19/07 A2994 RMK A01 T01850067  RH  046%=      5-min Rain = 0
KRO1 141059Z 23008KT 19/07 A2994 RMK A01 T01860068  RH  046%=      5-min Rain = 0
KRO1 141100Z 23009KT 19/07 A2994 RMK A01 T01860068  RH  046%=      5-min Rain = 0
KRO1 141101Z 22009KT 19/07 A2994 RMK A01 T01860068  RH  046%=      5-min Rain = 0
KRO1 141102Z 21009KT 19/07 A2994 RMK A01 T01860068  RH  046%=      5-min Rain = 0
KRO1 141103Z 21009KT 19/07 A2994 RMK A01 T01850068  RH  046%=      5-min Rain = 0
KRO1 141104Z 21009KT 19/07 A2994 RMK A01 T01850068  RH  046%=      5-min Rain = 0
KRO1 141105Z 21008KT 19/07 A2994 RMK A01 T01850068  RH  046%=      5-min Rain = 0
KRO1 141106Z 21007KT 19/07 A2994 RMK A01 T01850068  RH  046%=      5-min Rain = 0
KRO1 141107Z 21007KT 18/07 A2994 RMK A01 T01840068  RH  046%=      5-min Rain = 0
KRO1 141108Z 21008KT 18/07 A2994 RMK A01 T01840068  RH  047%=      5-min Rain = 0
KRO1 141109Z 20008KT 18/07 A2994 RMK A01 T01840068  RH  047%=      5-min Rain = 0
KRO1 141110Z 20008KT 18/07 A2994 RMK A01 T01840068  RH  047%=      5-min Rain = 0
KRO1 141111Z 20007KT 18/07 A2994 RMK A01 T01840068  RH  047%=      5-min Rain = 0
KRO1 141112Z 20007KT 18/07 A2994 RMK A01 T01830068  RH  047%=      5-min Rain = 0
KRO1 141113Z 20007KT 18/07 A2994 RMK A01 T01830068  RH  047%=      5-min Rain = 0
KRO1 141114Z 20007KT 18/07 A2994 RMK A01 T01820068  RH  047%=      5-min Rain = 0
KRO1 141115Z 21006KT 18/07 A2995 RMK A01 T01810068  RH  047%=      5-min Rain = 0
KRO1 141116Z 21006KT 18/07 A2995 RMK A01 T01810068  RH  048%=      5-min Rain = 0
KRO1 141117Z 21006KT 18/07 A2995 RMK A01 T01800068  RH  048%=      5-min Rain = 0
KRO1 141118Z 21006KT 18/07 A2995 RMK A01 T01800068  RH  048%=      5-min Rain = 0
KRO1 141119Z 21006KT 18/07 A2995 RMK A01 T01790068  RH  048%=      5-min Rain = 0
KRO1 141120Z 21005KT 18/07 A2995 RMK A01 T01800068  RH  048%=      5-min Rain = 0
KRO1 141121Z 21005KT 18/07 A2995 RMK A01 T01800068  RH  048%=      5-min Rain = 0
KRO1 141122Z 21006KT 18/07 A2995 RMK A01 T01790068  RH  048%=      5-min Rain = 0
KRO1 141123Z 21005KT 18/07 A2995 RMK A01 T01800068  RH  048%=      5-min Rain = 0
KRO1 141124Z 20006KT 18/07 A2995 RMK A01 T01790068  RH  048%=      5-min Rain = 0
KRO1 141125Z 21006KT 18/07 A2995 RMK A01 T01800068  RH  048%=      5-min Rain = 0
KRO1 141126Z 20006KT 18/07 A2995 RMK A01 T01790068  RH  048%=      5-min Rain = 0
KRO1 141127Z 20007KT 18/07 A2995 RMK A01 T01800069  RH  048%=      5-min Rain = 0
KRO1 141128Z 20007KT 18/07 A2995 RMK A01 T01800069  RH  048%=      5-min Rain = 0
KRO1 141129Z 20007KT 18/07 A2995 RMK A01 T01800069  RH  048%=      5-min Rain = 0
KRO1 141130Z 20007KT 18/07 A2995 RMK A01 T01800069  RH  048%=      5-min Rain = 0
KRO1 141131Z 19008KT 18/07 A2995 RMK A01 T01810069  RH  048%=      5-min Rain = 0
KRO1 141132Z 20008KT 18/07 A2995 RMK A01 T01820069  RH  048%=      5-min Rain = 0
KRO1 141133Z 19008KT 18/07 A2995 RMK A01 T01830069  RH  047%=      5-min Rain = 0
KRO1 141134Z 19007KT 18/07 A2995 RMK A01 T01830069  RH  047%=      5-min Rain = 0
KRO1 141135Z 19007KT 18/07 A2995 RMK A01 T01830069  RH  047%=      5-min Rain = 0
KRO1 141136Z 19008KT 18/07 A2995 RMK A01 T01830070  RH  047%=      5-min Rain = 0
KRO1 141137Z 19008KT 18/07 A2995 RMK A01 T01830069  RH  047%=      5-min Rain = 0
KRO1 141138Z 19007KT 18/07 A2995 RMK A01 T01830069  RH  047%=      5-min Rain = 0
KRO1 141139Z 19008KT 18/07 A2995 RMK A01 T01830069  RH  047%=      5-min Rain = 0
KRO1 141140Z 19008KT 18/07 A2995 RMK A01 T01830069  RH  047%=      5-min Rain = 0
KRO1 141141Z 19009KT 18/07 A2995 RMK A01 T01840070  RH  047%=      5-min Rain = 0
KRO1 141142Z 19009KT 18/07 A2995 RMK A01 T01840070  RH  047%=      5-min Rain = 0
KRO1 141143Z 19008KT 18/07 A2995 RMK A01 T01840069  RH  047%=      5-min Rain = 0
KRO1 141144Z 19008KT 18/07 A2995 RMK A01 T01840070  RH  047%=      5-min Rain = 0
KRO1 141145Z 19008KT 18/07 A2995 RMK A01 T01840070  RH  047%=      5-min Rain = 0
KRO1 141146Z 19008KT 18/07 A2995 RMK A01 T01840070  RH  047%=      5-min Rain = 0
KRO1 141147Z 19007KT 18/07 A2995 RMK A01 T01840070  RH  047%=      5-min Rain = 0
KRO1 141148Z 19009KT 18/07 A2995 RMK A01 T01830070  RH  048%=      5-min Rain = 0
KRO1 141149Z 19008KT 18/07 A2995 RMK A01 T01830070  RH  048%=      5-min Rain = 0
KRO1 141150Z 20008KT 18/07 A2995 RMK A01 T01830070  RH  048%=      5-min Rain = 0
KRO1 141151Z 20008KT 18/07 A2996 RMK A01 T01830070  RH  048%=      5-min Rain = 0
KRO1 141152Z 20008KT 18/07 A2996 RMK A01 T01830070  RH  048%=      5-min Rain = 0
KRO1 141153Z 20008KT 18/07 A2996 RMK A01 T01830070  RH  048%=      5-min Rain = 0
KRO1 141154Z 20007KT 18/07 A2996 RMK A01 T01830070  RH  048%=      5-min Rain = 0
KRO1 141155Z 20007KT 18/07 A2996 RMK A01 T01820070  RH  048%=      5-min Rain = 0
KRO1 141156Z 20007KT 18/07 A2996 RMK A01 T01820070  RH  048%=      5-min Rain = 0
KRO1 141157Z 20007KT 18/07 A2996 RMK A01 T01820070  RH  048%=      5-min Rain = 0
KRO1 141158Z 20008KT 18/07 A2996 RMK A01 T01820071  RH  048%=      5-min Rain = 0
KRO1 141159Z 20008KT 18/07 A2995 RMK A01 T01810070  RH  048%=      5-min Rain = 0
KRO1 141200Z 19008KT 18/07 A2995 RMK A01 T01810070  RH  048%=      5-min Rain = 0
KRO1 141201Z 20008KT 18/07 A2995 RMK A01 T01820071  RH  048%=      5-min Rain = 0
KRO1 141202Z 19008KT 18/07 A2995 RMK A01 T01820071  RH  048%=      5-min Rain = 0
KRO1 141203Z 19008KT 18/07 A2995 RMK A01 T01820071  RH  048%=      5-min Rain = 0
KRO1 141204Z 19008KT 18/07 A2995 RMK A01 T01820071  RH  048%=      5-min Rain = 0
KRO1 141205Z 19008KT 18/07 A2995 RMK A01 T01820071  RH  048%=      5-min Rain = 0
KRO1 141206Z 19009KT 18/07 A2995 RMK A01 T01820071  RH  048%=      5-min Rain = 0
KRO1 141207Z 19009KT 18/07 A2995 RMK A01 T01820071  RH  048%=      5-min Rain = 0
KRO1 141208Z 19008KT 18/07 A2995 RMK A01 T01820071  RH  048%=      5-min Rain = 0
KRO1 141209Z 19007KT 18/07 A2995 RMK A01 T01820071  RH  048%=      5-min Rain = 0
KRO1 141210Z 19007KT 18/07 A2995 RMK A01 T01820072  RH  049%=      5-min Rain = 0
KRO1 141211Z 19009KT 18/07 A2995 RMK A01 T01820072  RH  049%=      5-min Rain = 0
KRO1 141212Z 19008KT 18/07 A2995 RMK A01 T01820072  RH  049%=      5-min Rain = 0
KRO1 141213Z 19007KT 18/07 A2995 RMK A01 T01820072  RH  049%=      5-min Rain = 0
KRO1 141214Z 19008KT 18/07 A2995 RMK A01 T01820072  RH  049%=      5-min Rain = 0
KRO1 141215Z 19008KT 18/07 A2995 RMK A01 T01810072  RH  049%=      5-min Rain = 0
KRO1 141216Z 19009KT 18/07 A2995 RMK A01 T01810072  RH  049%=      5-min Rain = 0
KRO1 141217Z 19009KT 18/07 A2995 RMK A01 T01810072  RH  049%=      5-min Rain = 0
KRO1 141218Z 19009KT 18/07 A2995 RMK A01 T01810072  RH  049%=      5-min Rain = 0
KRO1 141219Z 19009KT 18/07 A2995 RMK A01 T01820072  RH  049%=      5-min Rain = 0
KRO1 141220Z 19009KT 18/07 A2995 RMK A01 T01820073  RH  049%=      5-min Rain = 0
KRO1 141221Z 20009KT 18/07 A2995 RMK A01 T01820073  RH  049%=      5-min Rain = 0
KRO1 141222Z 20009KT 18/07 A2995 RMK A01 T01820073  RH  049%=      5-min Rain = 0
KRO1 141223Z 20007KT 18/07 A2995 RMK A01 T01820073  RH  049%=      5-min Rain = 0
KRO1 141224Z 20009KT 18/07 A2995 RMK A01 T01820073  RH  049%=      5-min Rain = 0
KRO1 141225Z 19009KT 18/07 A2995 RMK A01 T01820073  RH  049%=      5-min Rain = 0
KRO1 141226Z 19008KT 18/07 A2995 RMK A01 T01820073  RH  049%=      5-min Rain = 0
KRO1 141227Z 19009KT 18/07 A2995 RMK A01 T01820074  RH  049%=      5-min Rain = 0
KRO1 141228Z 19008KT 18/07 A2995 RMK A01 T01820074  RH  049%=      5-min Rain = 0
KRO1 141229Z 20009KT 18/07 A2995 RMK A01 T01830074  RH  049%=      5-min Rain = 0
KRO1 141230Z 19009KT 18/07 A2995 RMK A01 T01830074  RH  049%=      5-min Rain = 0
KRO1 141231Z 19009KT 18/07 A2995 RMK A01 T01830074  RH  049%=      5-min Rain = 0
KRO1 141232Z 19009KT 18/07 A2995 RMK A01 T01830074  RH  049%=      5-min Rain = 0
KRO1 141233Z 19009KT 18/07 A2995 RMK A01 T01830074  RH  049%=      5-min Rain = 0
KRO1 141234Z 19009KT 18/07 A2996 RMK A01 T01830074  RH  049%=      5-min Rain = 0
KRO1 141235Z 20007KT 18/08 A2996 RMK A01 T01830075  RH  049%=      5-min Rain = 0
KRO1 141236Z 19010KT 18/08 A2996 RMK A01 T01830075  RH  049%=      5-min Rain = 0
KRO1 141237Z 20008KT 18/08 A2996 RMK A01 T01830075  RH  049%=      5-min Rain = 0
KRO1 141238Z 20008KT 18/08 A2996 RMK A01 T01830075  RH  049%=      5-min Rain = 0
KRO1 141239Z 20008KT 18/08 A2996 RMK A01 T01830075  RH  049%=      5-min Rain = 0
KRO1 141240Z 20007KT 18/08 A2996 RMK A01 T01830075  RH  049%=      5-min Rain = 0
KRO1 141241Z 20007KT 18/08 A2996 RMK A01 T01830075  RH  049%=      5-min Rain = 0
KRO1 141242Z 20008KT 18/08 A2996 RMK A01 T01830076  RH  050%=      5-min Rain = 0
KRO1 141243Z 20008KT 18/08 A2996 RMK A01 T01830076  RH  050%=      5-min Rain = 0
KRO1 141244Z 19009KT 18/08 A2996 RMK A01 T01830076  RH  050%=      5-min Rain = 0
KRO1 141245Z 19009KT 18/08 A2996 RMK A01 T01840077  RH  050%=      5-min Rain = 0
KRO1 141246Z 19008KT 18/08 A2996 RMK A01 T01840077  RH  050%=      5-min Rain = 0
KRO1 141247Z 20010KT 18/08 A2996 RMK A01 T01840077  RH  050%=      5-min Rain = 0
KRO1 141248Z 20008KT 19/08 A2996 RMK A01 T01850078  RH  050%=      5-min Rain = 0
KRO1 141249Z 20009KT 19/08 A2996 RMK A01 T01850078  RH  050%=      5-min Rain = 0
KRO1 141250Z 20009KT 19/08 A2996 RMK A01 T01850078  RH  050%=      5-min Rain = 0
KRO1 141251Z 20008KT 19/08 A2996 RMK A01 T01850078  RH  050%=      5-min Rain = 0
KRO1 141252Z 20008KT 19/08 A2996 RMK A01 T01860079  RH  050%=      5-min Rain = 0
KRO1 141253Z 20009KT 19/08 A2996 RMK A01 T01850079  RH  050%=      5-min Rain = 0
KRO1 141254Z 20009KT 19/08 A2996 RMK A01 T01860079  RH  050%=      5-min Rain = 0
KRO1 141255Z 20010KT 19/08 A2996 RMK A01 T01860080  RH  050%=      5-min Rain = 0
KRO1 141256Z 20009KT 19/08 A2996 RMK A01 T01870080  RH  050%=      5-min Rain = 0
KRO1 141257Z 20010KT 19/08 A2996 RMK A01 T01880080  RH  050%=      5-min Rain = 0
KRO1 141258Z 19010KT 19/08 A2996 RMK A01 T01880081  RH  050%=      5-min Rain = 0
KRO1 141259Z 20010KT 19/08 A2996 RMK A01 T01880081  RH  050%=      5-min Rain = 0
KRO1 141300Z 20010KT 19/08 A2996 RMK A01 T01880081  RH  050%=      5-min Rain = 0
KRO1 141301Z 20009KT 19/08 A2996 RMK A01 T01880081  RH  050%=      5-min Rain = 0
KRO1 141302Z 20011KT 19/08 A2996 RMK A01 T01880082  RH  050%=      5-min Rain = 0
KRO1 141303Z 20011KT 19/08 A2996 RMK A01 T01890082  RH  050%=      5-min Rain = 0
KRO1 141304Z 21009KT 19/08 A2996 RMK A01 T01890082  RH  050%=      5-min Rain = 0
KRO1 141305Z 21008KT 19/08 A2996 RMK A01 T01890082  RH  050%=      5-min Rain = 0
KRO1 141306Z 22007KT 19/08 A2997 RMK A01 T01890082  RH  050%=      5-min Rain = 0
KRO1 141307Z 24007KT 19/08 A2997 RMK A01 T01890082  RH  050%=      5-min Rain = 0
KRO1 141308Z 27007KT 19/08 A2997 RMK A01 T01890083  RH  050%=      5-min Rain = 0
KRO1 141309Z 28008KT 19/08 A2997 RMK A01 T01900083  RH  050%=      5-min Rain = 0
KRO1 141310Z 30007KT 19/08 A2997 RMK A01 T01900083  RH  050%=      5-min Rain = 0
KRO1 141311Z 31009KT 19/08 A2997 RMK A01 T01890082  RH  050%=      5-min Rain = 0
KRO1 141312Z 30010KT 19/08 A2997 RMK A01 T01890081  RH  049%=      5-min Rain = 0
KRO1 141313Z 30009KT 19/08 A2997 RMK A01 T01890081  RH  049%=      5-min Rain = 0
KRO1 141314Z 28009KT 19/08 A2997 RMK A01 T01880081  RH  050%=      5-min Rain = 0
KRO1 141315Z 26009KT 19/08 A2997 RMK A01 T01890082  RH  050%=      5-min Rain = 0
KRO1 141316Z 24009KT 19/08 A2997 RMK A01 T01910084  RH  050%=      5-min Rain = 0
KRO1 141317Z 23010KT 19/08 A2997 RMK A01 T01910083  RH  049%=      5-min Rain = 0
KRO1 141318Z 23009KT 19/08 A2997 RMK A01 T01910083  RH  049%=      5-min Rain = 0
KRO1 141319Z 22010KT 19/08 A2997 RMK A01 T01910084  RH  050%=      5-min Rain = 0
KRO1 141320Z 22010KT 19/08 A2997 RMK A01 T01920084  RH  050%=      5-min Rain = 0
KRO1 141321Z 22010KT 19/08 A2997 RMK A01 T01920084  RH  050%=      5-min Rain = 0
KRO1 141322Z 22009KT 19/08 A2997 RMK A01 T01920084  RH  050%=      5-min Rain = 0
KRO1 141323Z 24007KT 19/09 A2997 RMK A01 T01920085  RH  050%=      5-min Rain = 0
KRO1 141324Z 25007KT 19/09 A2998 RMK A01 T01920085  RH  050%=      5-min Rain = 0
KRO1 141325Z 27007KT 19/09 A2998 RMK A01 T01920086  RH  050%=      5-min Rain = 0
KRO1 141326Z 27007KT 19/09 A2998 RMK A01 T01920085  RH  050%=      5-min Rain = 0
KRO1 141327Z 26007KT 19/09 A2998 RMK A01 T01920085  RH  050%=      5-min Rain = 0
KRO1 141328Z 26007KT 19/09 A2998 RMK A01 T01920086  RH  050%=      5-min Rain = 0
KRO1 141329Z 25008KT 19/09 A2998 RMK A01 T01920086  RH  050%=      5-min Rain = 0
KRO1 141330Z 25007KT 19/09 A2998 RMK A01 T01920086  RH  050%=      5-min Rain = 0
KRO1 141331Z 24007KT 19/09 A2998 RMK A01 T01920086  RH  050%=      5-min Rain = 0
KRO1 141332Z 24007KT 19/09 A2998 RMK A01 T01920086  RH  050%=      5-min Rain = 0
KRO1 141333Z 23006KT 19/09 A2997 RMK A01 T01920086  RH  050%=      5-min Rain = 0
KRO1 141334Z 22007KT 19/09 A2997 RMK A01 T01910087  RH  051%=      5-min Rain = 0
KRO1 141335Z 22007KT 19/09 A2997 RMK A01 T01910087  RH  051%=      5-min Rain = 0
KRO1 141336Z 22008KT 19/09 A2997 RMK A01 T01910087  RH  051%=      5-min Rain = 0
KRO1 141337Z 22007KT 19/09 A2997 RMK A01 T01910087  RH  051%=      5-min Rain = 0
KRO1 141338Z 22008KT 19/09 A2997 RMK A01 T01920087  RH  051%=      5-min Rain = 0
KRO1 141339Z 22008KT 19/09 A2997 RMK A01 T01930087  RH  050%=      5-min Rain = 0
KRO1 141340Z 22009KT 19/09 A2998 RMK A01 T01940087  RH  050%=      5-min Rain = 0
KRO1 141341Z 22008KT 19/09 A2998 RMK A01 T01940087  RH  050%=      5-min Rain = 0
KRO1 141342Z 22008KT 20/09 A2998 RMK A01 T01950088  RH  050%=      5-min Rain = 0
KRO1 141343Z 22009KT 20/09 A2998 RMK A01 T01950087  RH  050%=      5-min Rain = 0
KRO1 141344Z 23008KT 20/09 A2998 RMK A01 T01960087  RH  049%=      5-min Rain = 0
KRO1 141345Z 23008KT 20/09 A2998 RMK A01 T01960087  RH  049%=      5-min Rain = 0
KRO1 141346Z 23009KT 20/09 A2998 RMK A01 T01970087  RH  049%=      5-min Rain = 0
KRO1 141347Z 22010KT 20/09 A2998 RMK A01 T01970087  RH  049%=      5-min Rain = 0
KRO1 141348Z 22010KT 20/09 A2998 RMK A01 T01970087  RH  049%=      5-min Rain = 0
KRO1 141349Z 22008KT 20/09 A2998 RMK A01 T01980087  RH  049%=      5-min Rain = 0
KRO1 141350Z 21009KT 20/09 A2997 RMK A01 T01980087  RH  049%=      5-min Rain = 0
KRO1 141351Z 21009KT 20/09 A2997 RMK A01 T01980087  RH  049%=      5-min Rain = 0
KRO1 141352Z 20010KT 20/09 A2997 RMK A01 T01980086  RH  049%=      5-min Rain = 0
KRO1 141353Z 21010KT 20/09 A2997 RMK A01 T01980086  RH  048%=      5-min Rain = 0
KRO1 141354Z 20011KT 20/09 A2997 RMK A01 T01980086  RH  048%=      5-min Rain = 0
KRO1 141355Z 21008KT 20/09 A2997 RMK A01 T01990086  RH  048%=      5-min Rain = 0
KRO1 141356Z 21008KT 20/09 A2997 RMK A01 T01990086  RH  048%=      5-min Rain = 0
KRO1 141357Z 22008G13KT 20/09 A2997 RMK A01 T01990086  RH  048%=      5-min Rain = 0
KRO1 141358Z 21008KT 20/09 A2998 RMK A01 T02000086  RH  048%=      5-min Rain = 0
KRO1 141359Z 22007KT 20/09 A2998 RMK A01 T02000086  RH  048%=      5-min Rain = 0
KRO1 141400Z 23007KT 20/09 A2998 RMK A01 T02000086  RH  048%=      5-min Rain = 0
KRO1 141401Z 22008KT 20/09 A2998 RMK A01 T02000086  RH  048%=      5-min Rain = 0
KRO1 141402Z 23008KT 20/09 A2998 RMK A01 T02000085  RH  047%=      5-min Rain = 0
KRO1 141403Z 23008KT 20/09 A2998 RMK A01 T02010086  RH  047%=      5-min Rain = 0
KRO1 141404Z 22007KT 20/09 A2998 RMK A01 T02010086  RH  047%=      5-min Rain = 0
KRO1 141405Z 23006KT 20/09 A2998 RMK A01 T02020086  RH  047%=      5-min Rain = 0
KRO1 141406Z 22007KT 20/09 A2998 RMK A01 T02020086  RH  047%=      5-min Rain = 0
KRO1 141407Z 21009KT 20/09 A2998 RMK A01 T02020086  RH  047%=      5-min Rain = 0
KRO1 141408Z 22009KT 20/09 A2998 RMK A01 T02020086  RH  047%=      5-min Rain = 0
KRO1 141409Z 21010KT 20/09 A2999 RMK A01 T02030086  RH  047%=      5-min Rain = 0
KRO1 141410Z 21008KT 20/09 A2999 RMK A01 T02030086  RH  047%=      5-min Rain = 0
KRO1 141411Z 21011KT 20/09 A2999 RMK A01 T02040086  RH  047%=      5-min Rain = 0
KRO1 141412Z 20011KT 20/09 A2999 RMK A01 T02040085  RH  046%=      5-min Rain = 0
KRO1 141413Z 20014KT 21/09 A2999 RMK A01 T02050085  RH  046%=      5-min Rain = 0
KRO1 141414Z 20013KT 21/09 A2999 RMK A01 T02050085  RH  046%=      5-min Rain = 0
KRO1 141415Z 21015KT 21/08 A2999 RMK A01 T02050084  RH  046%=      5-min Rain = 0
KRO1 141416Z 20015KT 21/08 A2999 RMK A01 T02060084  RH  045%=      5-min Rain = 0
KRO1 141417Z 20014KT 21/08 A2999 RMK A01 T02060084  RH  045%=      5-min Rain = 0
KRO1 141418Z 20011KT 21/09 A2999 RMK A01 T02070085  RH  045%=      5-min Rain = 0
KRO1 141419Z 19014KT 21/09 A2999 RMK A01 T02070085  RH  045%=      5-min Rain = 0
KRO1 141420Z 20014KT 21/08 A2999 RMK A01 T02060084  RH  045%=      5-min Rain = 0
KRO1 141421Z 20013KT 21/08 A2999 RMK A01 T02070084  RH  045%=      5-min Rain = 0
KRO1 141422Z 20012G17KT 21/08 A2999 RMK A01 T02070084  RH  045%=      5-min Rain = 0
KRO1 141423Z 20013KT 21/08 A2999 RMK A01 T02070084  RH  045%=      5-min Rain = 0
KRO1 141424Z 20013KT 21/09 A2999 RMK A01 T02070085  RH  045%=      5-min Rain = 0
KRO1 141425Z 20015KT 21/08 A2999 RMK A01 T02070084  RH  045%=      5-min Rain = 0
KRO1 141426Z 20013KT 21/08 A2999 RMK A01 T02070084  RH  045%=      5-min Rain = 0
KRO1 141427Z 20014KT 21/08 A2999 RMK A01 T02070084  RH  045%=      5-min Rain = 0
KRO1 141428Z 21012KT 21/08 A2999 RMK A01 T02080084  RH  045%=      5-min Rain = 0
KRO1 141429Z 20015KT 21/08 A2999 RMK A01 T02080084  RH  045%=      5-min Rain = 0
KRO1 141430Z 20014KT 21/08 A2999 RMK A01 T02080084  RH  045%=      5-min Rain = 0
KRO1 141431Z 20012KT 21/09 A30 RMK A01 T02090085  RH  045%=      5-min Rain = 0
KRO1 141432Z 20015G20KT 21/09 A30 RMK A01 T02090085  RH  045%=      5-min Rain = 0
KRO1 141433Z 19016G21KT 21/08 A30 RMK A01 T02100084  RH  044%=      5-min Rain = 0
KRO1 141434Z 20015KT 21/08 A30 RMK A01 T02100083  RH  044%=      5-min Rain = 0
KRO1 141435Z 21016KT 21/08 A30 RMK A01 T02100083  RH  044%=      5-min Rain = 0
KRO1 141436Z 20015KT 21/08 A30 RMK A01 T02110084  RH  044%=      5-min Rain = 0
KRO1 141437Z 20013KT 21/08 A30 RMK A01 T02110084  RH  044%=      5-min Rain = 0
KRO1 141438Z 20012KT 21/08 A30 RMK A01 T02110084  RH  044%=      5-min Rain = 0
KRO1 141439Z 21012KT 21/09 A30 RMK A01 T02110085  RH  044%=      5-min Rain = 0
KRO1 141440Z 21013KT 21/08 A30 RMK A01 T02120084  RH  044%=      5-min Rain = 0
KRO1 141441Z 21016KT 21/08 A30 RMK A01 T02120084  RH  044%=      5-min Rain = 0
KRO1 141442Z 21014KT 21/08 A30 RMK A01 T02120084  RH  044%=      5-min Rain = 0
KRO1 141443Z 21011KT 21/08 A30 RMK A01 T02120084  RH  044%=      5-min Rain = 0
KRO1 141444Z 21012KT 21/08 A30 RMK A01 T02120084  RH  044%=      5-min Rain = 0
KRO1 141445Z 20012KT 21/08 A30 RMK A01 T02130084  RH  043%=      5-min Rain = 0
KRO1 141446Z 20012KT 21/08 A30 RMK A01 T02140084  RH  043%=      5-min Rain = 0
KRO1 141447Z 21013KT 21/08 A30 RMK A01 T02140084  RH  043%=      5-min Rain = 0
KRO1 141448Z 20012KT 21/09 A30 RMK A01 T02140085  RH  043%=      5-min Rain = 0
KRO1 141449Z 20013KT 22/08 A30 RMK A01 T02150084  RH  043%=      5-min Rain = 0
KRO1 141450Z 21012KT 22/09 A30 RMK A01 T02150085  RH  043%=      5-min Rain = 0
KRO1 141451Z 20012KT 22/09 A30 RMK A01 T02150085  RH  043%=      5-min Rain = 0
KRO1 141452Z 21012KT 22/09 A30 RMK A01 T02160085  RH  043%=      5-min Rain = 0
KRO1 141453Z 21013KT 22/09 A30 RMK A01 T02160085  RH  043%=      5-min Rain = 0
KRO1 141454Z 21014KT 22/09 A30 RMK A01 T02170086  RH  043%=      5-min Rain = 0
KRO1 141455Z 21014KT 22/09 A30 RMK A01 T02170085  RH  043%=      5-min Rain = 0
KRO1 141456Z 21011KT 22/09 A30 RMK A01 T02170086  RH  043%=      5-min Rain = 0
KRO1 141457Z 21013KT 22/09 A30 RMK A01 T02180086  RH  043%=      5-min Rain = 0
KRO1 141458Z 22013KT 22/09 A30 RMK A01 T02190087  RH  043%=      5-min Rain = 0
KRO1 141459Z 22011KT 22/09 A30 RMK A01 T02190087  RH  043%=      5-min Rain = 0
KRO1 141500Z 23012KT 22/09 A30 RMK A01 T02200087  RH  043%=      5-min Rain = 0
KRO1 141501Z 22012KT 22/09 A30 RMK A01 T02200087  RH  042%=      5-min Rain = 0
KRO1 141502Z 22012KT 22/09 A30 RMK A01 T02210087  RH  042%=      5-min Rain = 0
KRO1 141503Z 21015KT 22/09 A30 RMK A01 T02210087  RH  042%=      5-min Rain = 0
KRO1 141504Z 22012KT 22/09 A30 RMK A01 T02210087  RH  042%=      5-min Rain = 0
KRO1 141505Z 22012KT 22/09 A30 RMK A01 T02210087  RH  042%=      5-min Rain = 0
KRO1 141506Z 21011KT 22/09 A30 RMK A01 T02210088  RH  043%=      5-min Rain = 0
KRO1 141507Z 21013KT 22/09 A30 RMK A01 T02210088  RH  043%=      5-min Rain = 0
KRO1 141508Z 22015KT 22/09 A30 RMK A01 T02210087  RH  042%=      5-min Rain = 0
KRO1 141509Z 22016KT 22/09 A30 RMK A01 T02210087  RH  042%=      5-min Rain = 0
KRO1 141510Z 21016KT 22/09 A30 RMK A01 T02200087  RH  042%=      5-min Rain = 0
KRO1 141511Z 22014KT 22/09 A30 RMK A01 T02200087  RH  043%=      5-min Rain = 0
KRO1 141512Z 21014KT 22/09 A30 RMK A01 T02200088  RH  043%=      5-min Rain = 0
KRO1 141513Z 21012G19KT 22/09 A30 RMK A01 T02210088  RH  043%=      5-min Rain = 0
KRO1 141514Z 21016KT 22/09 A30 RMK A01 T02210088  RH  042%=      5-min Rain = 0
KRO1 141515Z 22012KT 22/09 A30 RMK A01 T02220088  RH  042%=      5-min Rain = 0
KRO1 141516Z 22014KT 22/09 A30 RMK A01 T02220088  RH  042%=      5-min Rain = 0
KRO1 141517Z 22015KT 22/09 A30 RMK A01 T02220088  RH  042%=      5-min Rain = 0
KRO1 141518Z 22014KT 22/09 A30 RMK A01 T02230087  RH  042%=      5-min Rain = 0
KRO1 141519Z 22014KT 22/09 A30 RMK A01 T02220088  RH  042%=      5-min Rain = 0
KRO1 141520Z 22013KT 22/09 A30 RMK A01 T02230088  RH  042%=      5-min Rain = 0
KRO1 141521Z 22013KT 22/09 A30 RMK A01 T02240089  RH  042%=      5-min Rain = 0
KRO1 141522Z 22013KT 23/09 A30 RMK A01 T02250089  RH  042%=      5-min Rain = 0
KRO1 141523Z 22017KT 23/09 A30 RMK A01 T02250088  RH  041%=      5-min Rain = 0
KRO1 141524Z 21016KT 22/09 A30 RMK A01 T02240088  RH  042%=      5-min Rain = 0
KRO1 141525Z 21016KT 22/09 A30 RMK A01 T02240088  RH  042%=      5-min Rain = 0
KRO1 141526Z 21016KT 22/09 A30 RMK A01 T02240088  RH  042%=      5-min Rain = 0
KRO1 141527Z 21016KT 22/09 A30 RMK A01 T02240088  RH  042%=      5-min Rain = 0
KRO1 141528Z 21016KT 22/09 A30 RMK A01 T02240088  RH  042%=      5-min Rain = 0
KRO1 141529Z 21017KT 22/09 A30 RMK A01 T02240088  RH  042%=      5-min Rain = 0
KRO1 141530Z 20015KT 22/09 A30 RMK A01 T02240089  RH  042%=      5-min Rain = 0
KRO1 141531Z 21018KT 22/09 A30 RMK A01 T02240089  RH  042%=      5-min Rain = 0
KRO1 141532Z 21016KT 23/09 A30 RMK A01 T02250089  RH  042%=      5-min Rain = 0
KRO1 141533Z 21014G19KT 23/09 A30 RMK A01 T02250089  RH  042%=      5-min Rain = 0
KRO1 141534Z 21015KT 23/09 A30 RMK A01 T02260090  RH  042%=      5-min Rain = 0
KRO1 141535Z 22017KT 23/09 A30 RMK A01 T02260089  RH  042%=      5-min Rain = 0
KRO1 141536Z 21014KT 23/09 A30 RMK A01 T02260090  RH  042%=      5-min Rain = 0
KRO1 141537Z 21012KT 23/09 A30 RMK A01 T02270091  RH  042%=      5-min Rain = 0
KRO1 141538Z 21014KT 23/09 A30 RMK A01 T02290091  RH  041%=      5-min Rain = 0
KRO1 141539Z 22015KT 23/09 A30 RMK A01 T02300091  RH  041%=      5-min Rain = 0
KRO1 141540Z 21014KT 23/09 A30 RMK A01 T02320091  RH  041%=      5-min Rain = 0
KRO1 141541Z 21011KT 23/09 A30 RMK A01 T02320093  RH  041%=      5-min Rain = 0
KRO1 141542Z 22011KT 24/09 A30 RMK A01 T02350094  RH  041%=      5-min Rain = 0
KRO1 141543Z 22013KT 24/10 A30 RMK A01 T02360096  RH  041%=      5-min Rain = 0
KRO1 141544Z 21016KT 24/10 A30 RMK A01 T02380095  RH  040%=      5-min Rain = 0
KRO1 141545Z 21016KT 24/09 A30 RMK A01 T02380094  RH  040%=      5-min Rain = 0
KRO1 141546Z 21012KT 24/10 A30 RMK A01 T02390096  RH  040%=      5-min Rain = 0
KRO1 141547Z 20011KT 24/10 A30 RMK A01 T02420096  RH  040%=      5-min Rain = 0
KRO1 141548Z 21014KT 24/10 A30 RMK A01 T02420096  RH  040%=      5-min Rain = 0
KRO1 141549Z 22012KT 24/10 A30 RMK A01 T02400096  RH  040%=      5-min Rain = 0
KRO1 141550Z 22013KT 24/10 A30 RMK A01 T02390096  RH  040%=      5-min Rain = 0
KRO1 141551Z 22014KT 24/10 A30 RMK A01 T02390096  RH  040%=      5-min Rain = 0
KRO1 141552Z 21010KT 24/10 A30 RMK A01 T02380096  RH  040%=      5-min Rain = 0
KRO1 141553Z 22011KT 24/10 A30 RMK A01 T02380097  RH  041%=      5-min Rain = 0
KRO1 141554Z 20011KT 24/10 A2999 RMK A01 T02380096  RH  040%=      5-min Rain = 0
KRO1 141555Z 20011KT 24/10 A2999 RMK A01 T02370095  RH  041%=      5-min Rain = 0
KRO1 141556Z 21009KT 24/10 A2999 RMK A01 T02370097  RH  041%=      5-min Rain = 0
KRO1 141557Z 20009KT 24/10 A2999 RMK A01 T02370098  RH  041%=      5-min Rain = 0
KRO1 141558Z 20012KT 24/10 A2999 RMK A01 T02380098  RH  041%=      5-min Rain = 0
KRO1 141559Z 21013KT 24/10 A2999 RMK A01 T02380096  RH  041%=      5-min Rain = 0
KRO1 141600Z 20013KT 24/10 A2999 RMK A01 T02370096  RH  041%=      5-min Rain = 0
KRO1 141601Z 20010KT 24/10 A2999 RMK A01 T02360096  RH  041%=      5-min Rain = 0
KRO1 141602Z 20009KT 24/10 A2999 RMK A01 T02370097  RH  041%=      5-min Rain = 0
KRO1 141603Z 21009KT 24/10 A2999 RMK A01 T02390099  RH  041%=      5-min Rain = 0
KRO1 141604Z 21011KT 24/10 A2999 RMK A01 T02400098  RH  041%=      5-min Rain = 0
KRO1 141605Z 22010KT 24/10 A2999 RMK A01 T02410098  RH  041%=      5-min Rain = 0
KRO1 141606Z 22011KT 24/10 A30 RMK A01 T02400098  RH  041%=      5-min Rain = 0
KRO1 141607Z 23009KT 24/10 A30 RMK A01 T02420099  RH  040%=      5-min Rain = 0
KRO1 141608Z 22010KT 24/10 A2999 RMK A01 T02440100  RH  040%=      5-min Rain = 0
KRO1 141609Z 22013KT 25/10 A2999 RMK A01 T02450100  RH  040%=      5-min Rain = 0
KRO1 141610Z 22012KT 24/10 A2999 RMK A01 T02440099  RH  040%=      5-min Rain = 0
KRO1 141611Z 22010KT 24/10 A2999 RMK A01 T02420100  RH  041%=      5-min Rain = 0
KRO1 141612Z 22012KT 24/10 A2999 RMK A01 T02420099  RH  040%=      5-min Rain = 0
KRO1 141613Z 21010KT 24/10 A2999 RMK A01 T02420100  RH  040%=      5-min Rain = 0
KRO1 141614Z 21012KT 24/10 A2999 RMK A01 T02430100  RH  040%=      5-min Rain = 0
KRO1 141615Z 22011KT 24/10 A2999 RMK A01 T02420099  RH  040%=      5-min Rain = 0
KRO1 141616Z 22010KT 24/10 A2999 RMK A01 T02420099  RH  040%=      5-min Rain = 0
KRO1 141617Z 22009KT 24/10 A2999 RMK A01 T02420101  RH  041%=      5-min Rain = 0
KRO1 141618Z 22009KT 24/10 A2999 RMK A01 T02440102  RH  041%=      5-min Rain = 0
KRO1 141619Z 23011KT 25/10 A30 RMK A01 T02450100  RH  040%=      5-min Rain = 0
KRO1 141620Z 23009KT 25/10 A2999 RMK A01 T02450100  RH  040%=      5-min Rain = 0
KRO1 141621Z 22012KT 25/10 A2999 RMK A01 T02450101  RH  040%=      5-min Rain = 0
KRO1 141622Z 23009KT 25/10 A2999 RMK A01 T02450100  RH  040%=      5-min Rain = 0
KRO1 141623Z 22010KT 25/10 A2999 RMK A01 T02450101  RH  040%=      5-min Rain = 0
KRO1 141624Z 23010KT 25/10 A2999 RMK A01 T02450100  RH  040%=      5-min Rain = 0
KRO1 141625Z 22008KT 25/10 A2999 RMK A01 T02450101  RH  040%=      5-min Rain = 0
KRO1 141626Z 22008KT 25/10 A2999 RMK A01 T02450100  RH  040%=      5-min Rain = 0
KRO1 141627Z 23008KT 25/10 A2999 RMK A01 T02470102  RH  040%=      5-min Rain = 0
KRO1 141628Z 23009KT 25/10 A2999 RMK A01 T02480101  RH  039%=      5-min Rain = 0
KRO1 141629Z 22008KT 25/10 A2999 RMK A01 T02480101  RH  039%=      5-min Rain = 0
KRO1 141630Z 21007KT 25/10 A2999 RMK A01 T02480102  RH  040%=      5-min Rain = 0
KRO1 141631Z 21008KT 25/10 A2999 RMK A01 T02480102  RH  040%=      5-min Rain = 0
KRO1 141632Z 20009KT 25/10 A2999 RMK A01 T02490101  RH  039%=      5-min Rain = 0
KRO1 141633Z 20009KT 25/10 A2999 RMK A01 T02480100  RH  039%=      5-min Rain = 0
KRO1 141634Z 21009KT 25/10 A2999 RMK A01 T02460100  RH  039%=      5-min Rain = 0
KRO1 141635Z 22008KT 25/10 A2999 RMK A01 T02460101  RH  040%=      5-min Rain = 0
KRO1 141636Z 22008KT 25/10 A2999 RMK A01 T02460100  RH  039%=      5-min Rain = 0
KRO1 141637Z 21008KT 25/10 A2999 RMK A01 T02460100  RH  040%=      5-min Rain = 0
KRO1 141638Z 21009KT 25/10 A2999 RMK A01 T02460101  RH  040%=      5-min Rain = 0
KRO1 141639Z 21009KT 25/10 A2999 RMK A01 T02480101  RH  039%=      5-min Rain = 0
KRO1 141640Z 21009KT 25/10 A2999 RMK A01 T02490101  RH  039%=      5-min Rain = 0
KRO1 141641Z 22008KT 25/10 A2999 RMK A01 T02500101  RH  039%=      5-min Rain = 0
KRO1 141642Z 21008KT 25/10 A2999 RMK A01 T02500102  RH  039%=      5-min Rain = 0
KRO1 141643Z 21009KT 25/10 A2999 RMK A01 T02510101  RH  039%=      5-min Rain = 0
KRO1 141644Z 21010KT 25/10 A2999 RMK A01 T02520101  RH  038%=      5-min Rain = 0
KRO1 141645Z 21009KT 25/10 A2999 RMK A01 T02530101  RH  038%=      5-min Rain = 0
KRO1 141646Z 20009KT 25/10 A2999 RMK A01 T02530101  RH  038%=      5-min Rain = 0
KRO1 141647Z 21010KT 25/10 A2999 RMK A01 T02540102  RH  038%=      5-min Rain = 0
KRO1 141648Z 22010KT 26/10 A2999 RMK A01 T02550101  RH  038%=      5-min Rain = 0
KRO1 141649Z 20011KT 25/10 A2999 RMK A01 T02540101  RH  038%=      5-min Rain = 0
KRO1 141650Z 20009KT 25/10 A2999 RMK A01 T02540102  RH  038%=      5-min Rain = 0
KRO1 141651Z 20010KT 26/10 A2999 RMK A01 T02550102  RH  038%=      5-min Rain = 0
KRO1 141652Z 20010KT 26/10 A2999 RMK A01 T02550101  RH  038%=      5-min Rain = 0
KRO1 141653Z 21012KT 25/10 A2999 RMK A01 T02540101  RH  038%=      5-min Rain = 0
KRO1 141654Z 20013KT 25/10 A2999 RMK A01 T02540101  RH  038%=      5-min Rain = 0
KRO1 141655Z 20009KT 25/10 A2999 RMK A01 T02530100  RH  038%=      5-min Rain = 0
KRO1 141656Z 20010KT 25/10 A2999 RMK A01 T02520101  RH  039%=      5-min Rain = 0
KRO1 141657Z 20010KT 25/10 A2999 RMK A01 T02520101  RH  039%=      5-min Rain = 0
KRO1 141658Z 20013KT 25/10 A2999 RMK A01 T02530101  RH  038%=      5-min Rain = 0
KRO1 141659Z 20014KT 25/10 A2999 RMK A01 T02530101  RH  038%=      5-min Rain = 0
KRO1 141700Z 19014KT 25/10 A2999 RMK A01 T02520100  RH  038%=      5-min Rain = 0
KRO1 141701Z 21011KT 25/10 A2999 RMK A01 T02510100  RH  038%=      5-min Rain = 0
KRO1 141702Z 21010KT 25/10 A2999 RMK A01 T02510100  RH  038%=      5-min Rain = 0
KRO1 141703Z 20011KT 25/10 A2999 RMK A01 T02500100  RH  039%=      5-min Rain = 0
KRO1 141704Z 19013KT 25/10 A2999 RMK A01 T02490100  RH  039%=      5-min Rain = 0
KRO1 141705Z 19012KT 25/10 A2999 RMK A01 T02490100  RH  039%=      5-min Rain = 0
KRO1 141706Z 19011KT 25/10 A2999 RMK A01 T02490100  RH  039%=      5-min Rain = 0
KRO1 141707Z 20011KT 25/10 A2999 RMK A01 T02480100  RH  039%=      5-min Rain = 0
KRO1 141708Z 19012KT 25/10 A2999 RMK A01 T02480100  RH  039%=      5-min Rain = 0
KRO1 141709Z 20011KT 25/10 A2999 RMK A01 T02480101  RH  039%=      5-min Rain = 0
KRO1 141710Z 20012KT 25/10 A2999 RMK A01 T02490102  RH  039%=      5-min Rain = 0
KRO1 141711Z 20013KT 25/10 A2999 RMK A01 T02500101  RH  039%=      5-min Rain = 0
KRO1 141712Z 20013KT 25/10 A2999 RMK A01 T02490102  RH  039%=      5-min Rain = 0
KRO1 141713Z 19010G15KT 25/10 A2999 RMK A01 T02490103  RH  040%=      5-min Rain = 0
KRO1 141714Z 19012KT 25/10 A2999 RMK A01 T02500104  RH  040%=      5-min Rain = 0
KRO1 141715Z 19013KT 25/10 A2999 RMK A01 T02510103  RH  039%=      5-min Rain = 0
KRO1 141716Z 21012KT 25/10 A2999 RMK A01 T02510103  RH  039%=      5-min Rain = 0
KRO1 141717Z 20014KT 25/10 A2999 RMK A01 T02510103  RH  039%=      5-min Rain = 0
KRO1 141718Z 20013KT 25/10 A2999 RMK A01 T02510103  RH  039%=      5-min Rain = 0
KRO1 141719Z 20011KT 25/11 A2999 RMK A01 T02530105  RH  039%=      5-min Rain = 0
KRO1 141720Z 19013KT 25/11 A2998 RMK A01 T02540105  RH  039%=      5-min Rain = 0
KRO1 141721Z 20013KT 25/11 A2998 RMK A01 T02540105  RH  039%=      5-min Rain = 0
KRO1 141722Z 20010KT 25/10 A2998 RMK A01 T02530104  RH  039%=      5-min Rain = 0
KRO1 141723Z 20012KT 25/11 A2998 RMK A01 T02530106  RH  040%=      5-min Rain = 0
KRO1 141724Z 20011KT 25/11 A2998 RMK A01 T02520105  RH  040%=      5-min Rain = 0
KRO1 141725Z 20012KT 25/11 A2998 RMK A01 T02520105  RH  040%=      5-min Rain = 0
KRO1 141726Z 21013KT 25/11 A2998 RMK A01 T02530105  RH  039%=      5-min Rain = 0
KRO1 141727Z 20015KT 25/11 A2998 RMK A01 T02530106  RH  040%=      5-min Rain = 0
KRO1 141728Z 19011KT 25/11 A2998 RMK A01 T02520105  RH  040%=      5-min Rain = 0
KRO1 141729Z 20011KT 25/11 A2998 RMK A01 T02510107  RH  040%=      5-min Rain = 0
KRO1 141730Z 21011KT 25/11 A2998 RMK A01 T02530109  RH  040%=      5-min Rain = 0
KRO1 141731Z 21013KT 26/11 A2998 RMK A01 T02550109  RH  040%=      5-min Rain = 0
KRO1 141732Z 21013KT 26/11 A2998 RMK A01 T02560108  RH  039%=      5-min Rain = 0
KRO1 141733Z 20014KT 26/11 A2998 RMK A01 T02560108  RH  039%=      5-min Rain = 0
KRO1 141734Z 20013KT 25/11 A2998 RMK A01 T02540107  RH  040%=      5-min Rain = 0
KRO1 141735Z 19014KT 25/11 A2998 RMK A01 T02530108  RH  040%=      5-min Rain = 0
KRO1 141736Z 21013KT 25/11 A2998 RMK A01 T02530109  RH  040%=      5-min Rain = 0
KRO1 141737Z 20013KT 25/11 A2997 RMK A01 T02540109  RH  040%=      5-min Rain = 0
KRO1 141738Z 20013KT 25/11 A2997 RMK A01 T02540109  RH  040%=      5-min Rain = 0
KRO1 141739Z 19013KT 25/11 A2997 RMK A01 T02520109  RH  041%=      5-min Rain = 0
KRO1 141740Z 20012KT 25/11 A2997 RMK A01 T02520109  RH  041%=      5-min Rain = 0
KRO1 141741Z 21009KT 25/11 A2997 RMK A01 T02520109  RH  041%=      5-min Rain = 0
KRO1 141742Z 20009KT 25/11 A2997 RMK A01 T02530109  RH  040%=      5-min Rain = 0
KRO1 141743Z 19011G16KT 25/11 A2997 RMK A01 T02540110  RH  040%=      5-min Rain = 0
KRO1 141744Z 20014KT 26/11 A2996 RMK A01 T02560109  RH  040%=      5-min Rain = 0
KRO1 141745Z 20014KT 26/11 A2997 RMK A01 T02570108  RH  039%=      5-min Rain = 0
KRO1 141746Z 20011KT 26/11 A2997 RMK A01 T02570108  RH  039%=      5-min Rain = 0
KRO1 141747Z 20012KT 26/11 A2997 RMK A01 T02570109  RH  039%=      5-min Rain = 0
KRO1 141748Z 22013KT 26/11 A2997 RMK A01 T02580109  RH  039%=      5-min Rain = 0
KRO1 141749Z 21012KT 26/11 A2997 RMK A01 T02580109  RH  039%=      5-min Rain = 0
KRO1 141750Z 22012KT 26/11 A2997 RMK A01 T02570109  RH  039%=      5-min Rain = 0
KRO1 141751Z 21011KT 26/11 A2997 RMK A01 T02580107  RH  039%=      5-min Rain = 0
KRO1 141752Z 22012KT 26/11 A2997 RMK A01 T02570109  RH  039%=      5-min Rain = 0
KRO1 141753Z 22012KT 26/11 A2997 RMK A01 T02580109  RH  039%=      5-min Rain = 0
KRO1 141754Z 21011KT 26/11 A2997 RMK A01 T02580109  RH  039%=      5-min Rain = 0
KRO1 141755Z 22013KT 26/11 A2996 RMK A01 T02580109  RH  039%=      5-min Rain = 0
KRO1 141756Z 22014KT 26/11 A2996 RMK A01 T02590110  RH  039%=      5-min Rain = 0
KRO1 141757Z 23011KT 26/11 A2996 RMK A01 T02590109  RH  039%=      5-min Rain = 0
KRO1 141758Z 23009KT 26/11 A2997 RMK A01 T02590110  RH  039%=      5-min Rain = 0
KRO1 141759Z 23011KT 26/11 A2997 RMK A01 T02590109  RH  039%=      5-min Rain = 0
KRO1 141800Z 22013KT 26/11 A2997 RMK A01 T02600110  RH  039%=      5-min Rain = 0
KRO1 141801Z 22013KT 26/11 A2997 RMK A01 T02620111  RH  039%=      5-min Rain = 0
KRO1 141802Z 23013KT 26/11 A2997 RMK A01 T02630110  RH  038%=      5-min Rain = 0
KRO1 141803Z 23012KT 26/11 A2997 RMK A01 T02620110  RH  039%=      5-min Rain = 0
KRO1 141804Z 23012KT 26/11 A2997 RMK A01 T02620111  RH  039%=      5-min Rain = 0
KRO1 141805Z 22008KT 26/11 A2997 RMK A01 T02620110  RH  039%=      5-min Rain = 0
KRO1 141806Z 23008KT 26/11 A2997 RMK A01 T02610111  RH  039%=      5-min Rain = 0
KRO1 141807Z 23008KT 26/11 A2997 RMK A01 T02600111  RH  039%=      5-min Rain = 0
KRO1 141808Z 22012KT 26/11 A2997 RMK A01 T02610113  RH  040%=      5-min Rain = 0
KRO1 141809Z 21014KT 26/11 A2997 RMK A01 T02620114  RH  040%=      5-min Rain = 0
KRO1 141810Z 22014KT 26/12 A2997 RMK A01 T02620115  RH  040%=      5-min Rain = 0
KRO1 141811Z 22014KT 26/12 A2997 RMK A01 T02610115  RH  040%=      5-min Rain = 0
KRO1 141812Z 22013KT 26/12 A2997 RMK A01 T02610116  RH  040%=      5-min Rain = 0
KRO1 141813Z 22012KT 26/12 A2996 RMK A01 T02610115  RH  040%=      5-min Rain = 0
KRO1 141814Z 22014KT 26/12 A2996 RMK A01 T02600116  RH  040%=      5-min Rain = 0
KRO1 141815Z 21013KT 26/12 A2996 RMK A01 T02610116  RH  040%=      5-min Rain = 0
KRO1 141816Z 21013KT 26/12 A2996 RMK A01 T02610115  RH  040%=      5-min Rain = 0
KRO1 141817Z 22012KT 26/12 A2996 RMK A01 T02610115  RH  040%=      5-min Rain = 0
KRO1 141818Z 22010KT 26/12 A2996 RMK A01 T02610116  RH  040%=      5-min Rain = 0
KRO1 141819Z 21008G13KT 26/12 A2996 RMK A01 T02610117  RH  041%=      5-min Rain = 0
KRO1 141820Z 21012KT 26/12 A2996 RMK A01 T02620118  RH  041%=      5-min Rain = 0
KRO1 141821Z 23010KT 26/12 A2996 RMK A01 T02630117  RH  040%=      5-min Rain = 0
KRO1 141822Z 22011KT 26/12 A2996 RMK A01 T02610117  RH  040%=      5-min Rain = 0
KRO1 141823Z 21009KT 26/12 A2996 RMK A01 T02610117  RH  041%=      5-min Rain = 0
KRO1 141824Z 20009KT 26/12 A2995 RMK A01 T02620118  RH  041%=      5-min Rain = 0
KRO1 141825Z 20009KT 26/12 A2995 RMK A01 T02630118  RH  040%=      5-min Rain = 0
KRO1 141826Z 20009KT 26/12 A2995 RMK A01 T02640119  RH  040%=      5-min Rain = 0
KRO1 141827Z 21011KT 27/12 A2995 RMK A01 T02660120  RH  040%=      5-min Rain = 0
KRO1 141828Z 22012KT 27/12 A2995 RMK A01 T02670119  RH  040%=      5-min Rain = 0
KRO1 141829Z 22012KT 27/12 A2996 RMK A01 T02660120  RH  040%=      5-min Rain = 0
KRO1 141830Z 21012KT 27/12 A2996 RMK A01 T02670121  RH  040%=      5-min Rain = 0
KRO1 141831Z 22011KT 27/12 A2996 RMK A01 T02670120  RH  040%=      5-min Rain = 0
KRO1 141832Z 21012KT 27/12 A2996 RMK A01 T02660120  RH  040%=      5-min Rain = 0
KRO1 141833Z 20011KT 27/12 A2996 RMK A01 T02660121  RH  040%=      5-min Rain = 0
KRO1 141834Z 20012G18KT 27/12 A2996 RMK A01 T02660120  RH  040%=      5-min Rain = 0
KRO1 141835Z 21013KT 27/12 A2995 RMK A01 T02660122  RH  041%=      5-min Rain = 0
KRO1 141836Z 20013KT 27/12 A2995 RMK A01 T02660123  RH  041%=      5-min Rain = 0
KRO1 141837Z 19012KT 27/12 A2995 RMK A01 T02660124  RH  041%=      5-min Rain = 0
KRO1 141838Z 19012KT 27/12 A2995 RMK A01 T02670124  RH  041%=      5-min Rain = 0
KRO1 141839Z 19012KT 27/12 A2995 RMK A01 T02670124  RH  041%=      5-min Rain = 0
KRO1 141840Z 21014KT 27/13 A2995 RMK A01 T02680125  RH  041%=      5-min Rain = 0
KRO1 141841Z 22013KT 27/12 A2995 RMK A01 T02690124  RH  041%=      5-min Rain = 0
KRO1 141842Z 21011KT 27/12 A2995 RMK A01 T02680123  RH  041%=      5-min Rain = 0
KRO1 141843Z 21010KT 27/12 A2995 RMK A01 T02670124  RH  041%=      5-min Rain = 0
KRO1 141844Z 20015KT 27/12 A2995 RMK A01 T02680124  RH  041%=      5-min Rain = 0
KRO1 141845Z 20012KT 27/12 A2995 RMK A01 T02670124  RH  041%=      5-min Rain = 0
KRO1 141846Z 20013KT 27/12 A2995 RMK A01 T02670124  RH  041%=      5-min Rain = 0
KRO1 141847Z 21012KT 27/12 A2995 RMK A01 T02650124  RH  041%=      5-min Rain = 0
KRO1 141848Z 21011KT 27/13 A2995 RMK A01 T02650125  RH  042%=      5-min Rain = 0
KRO1 141849Z 22010KT 27/13 A2995 RMK A01 T02660125  RH  042%=      5-min Rain = 0
KRO1 141850Z 20013KT 27/13 A2994 RMK A01 T02670125  RH  041%=      5-min Rain = 0
KRO1 141851Z 21014KT 27/13 A2994 RMK A01 T02670125  RH  041%=      5-min Rain = 0
KRO1 141852Z 22014KT 27/13 A2995 RMK A01 T02670125  RH  041%=      5-min Rain = 0
KRO1 141853Z 23014KT 27/12 A2995 RMK A01 T02670124  RH  041%=      5-min Rain = 0
KRO1 141854Z 22014KT 27/12 A2995 RMK A01 T02660124  RH  041%=      5-min Rain = 0
KRO1 141855Z 22012KT 27/12 A2995 RMK A01 T02650124  RH  042%=      5-min Rain = 0
KRO1 141856Z 21016KT 27/12 A2994 RMK A01 T02650124  RH  041%=      5-min Rain = 0
KRO1 141857Z 22014KT 27/12 A2995 RMK A01 T02660124  RH  041%=      5-min Rain = 0
KRO1 141858Z 21013KT 27/12 A2994 RMK A01 T02650124  RH  042%=      5-min Rain = 0
KRO1 141859Z 21016KT 27/12 A2994 RMK A01 T02650124  RH  042%=      5-min Rain = 0
KRO1 141900Z 21013KT 26/12 A2994 RMK A01 T02640124  RH  042%=      5-min Rain = 0
KRO1 141901Z 20012KT 26/12 A2994 RMK A01 T02630124  RH  042%=      5-min Rain = 0
KRO1 141902Z 21010KT 26/13 A2994 RMK A01 T02630125  RH  042%=      5-min Rain = 0
KRO1 141903Z 22010KT 26/13 A2994 RMK A01 T02640126  RH  042%=      5-min Rain = 0
KRO1 141904Z 21011KT 26/13 A2994 RMK A01 T02640125  RH  042%=      5-min Rain = 0
KRO1 141905Z 21011KT 27/13 A2994 RMK A01 T02650126  RH  042%=      5-min Rain = 0
KRO1 141906Z 22011KT 27/13 A2994 RMK A01 T02660126  RH  042%=      5-min Rain = 0
KRO1 141907Z 23010G16KT 27/13 A2994 RMK A01 T02660126  RH  042%=      5-min Rain = 0
KRO1 141908Z 22012KT 27/13 A2994 RMK A01 T02660126  RH  042%=      5-min Rain = 0
KRO1 141909Z 20014KT 27/13 A2994 RMK A01 T02670126  RH  042%=      5-min Rain = 0
KRO1 141910Z 21014KT 27/13 A2994 RMK A01 T02680126  RH  041%=      5-min Rain = 0
KRO1 141911Z 21013KT 27/13 A2994 RMK A01 T02680126  RH  041%=      5-min Rain = 0
KRO1 141912Z 21014KT 27/13 A2994 RMK A01 T02680127  RH  041%=      5-min Rain = 0
KRO1 141913Z 20012KT 27/13 A2994 RMK A01 T02690127  RH  041%=      5-min Rain = 0
KRO1 141914Z 21012KT 27/13 A2994 RMK A01 T02730129  RH  041%=      5-min Rain = 0
KRO1 141915Z 20012KT 28/13 A2994 RMK A01 T02750129  RH  041%=      5-min Rain = 0
KRO1 141916Z 21011KT 27/13 A2994 RMK A01 T02740130  RH  041%=      5-min Rain = 0
KRO1 141917Z 22011KT 27/13 A2994 RMK A01 T02740131  RH  041%=      5-min Rain = 0
KRO1 141918Z 23011KT 27/13 A2994 RMK A01 T02740131  RH  041%=      5-min Rain = 0
KRO1 141919Z 22009KT 27/13 A2993 RMK A01 T02740130  RH  041%=      5-min Rain = 0
KRO1 141920Z 21012KT 27/13 A2993 RMK A01 T02740129  RH  041%=      5-min Rain = 0
KRO1 141921Z 21012KT 27/13 A2993 RMK A01 T02720128  RH  041%=      5-min Rain = 0
KRO1 141922Z 22013KT 27/13 A2993 RMK A01 T02720129  RH  041%=      5-min Rain = 0
KRO1 141923Z 23012KT 27/13 A2993 RMK A01 T02700129  RH  042%=      5-min Rain = 0
KRO1 141924Z 22013KT 27/13 A2993 RMK A01 T02700129  RH  042%=      5-min Rain = 0
KRO1 141925Z 22012KT 27/13 A2993 RMK A01 T02690129  RH  042%=      5-min Rain = 0
KRO1 141926Z 21011KT 27/13 A2993 RMK A01 T02690129  RH  042%=      5-min Rain = 0
KRO1 141927Z 21010KT 27/13 A2993 RMK A01 T02690129  RH  042%=      5-min Rain = 0
KRO1 141928Z 22010KT 27/13 A2993 RMK A01 T02690130  RH  042%=      5-min Rain = 0
KRO1 141929Z 21010KT 27/13 A2993 RMK A01 T02710128  RH  041%=      5-min Rain = 0
KRO1 141930Z 21009KT 27/13 A2993 RMK A01 T02710128  RH  041%=      5-min Rain = 0
KRO1 141931Z 20008KT 27/13 A2993 RMK A01 T02710129  RH  041%=      5-min Rain = 0
KRO1 141932Z 21011KT 27/13 A2993 RMK A01 T02740130  RH  041%=      5-min Rain = 0
KRO1 141933Z 21013KT 28/13 A2993 RMK A01 T02750130  RH  041%=      5-min Rain = 0
KRO1 141934Z 22012KT 28/13 A2993 RMK A01 T02750131  RH  041%=      5-min Rain = 0
KRO1 141935Z 22012KT 27/13 A2993 RMK A01 T02740131  RH  041%=      5-min Rain = 0
KRO1 141936Z 23014KT 27/13 A2993 RMK A01 T02740130  RH  041%=      5-min Rain = 0
KRO1 141937Z 22013KT 27/13 A2993 RMK A01 T02710128  RH  041%=      5-min Rain = 0
KRO1 141938Z 21014KT 27/13 A2993 RMK A01 T02700129  RH  042%=      5-min Rain = 0
KRO1 141939Z 21010KT 27/13 A2993 RMK A01 T02700128  RH  042%=      5-min Rain = 0
KRO1 141940Z 20013G18KT 27/13 A2993 RMK A01 T02700129  RH  042%=      5-min Rain = 0
KRO1 141941Z 20015KT 27/13 A2992 RMK A01 T02700128  RH  041%=      5-min Rain = 0
KRO1 141942Z 20015KT 27/13 A2992 RMK A01 T02710128  RH  041%=      5-min Rain = 0
KRO1 141943Z 22013KT 27/13 A2992 RMK A01 T02710130  RH  041%=      5-min Rain = 0
KRO1 141944Z 21011KT 27/13 A2992 RMK A01 T02720130  RH  041%=      5-min Rain = 0
KRO1 141945Z 22012KT 27/13 A2992 RMK A01 T02730129  RH  041%=      5-min Rain = 0
KRO1 141946Z 22013KT 27/13 A2992 RMK A01 T02730130  RH  041%=      5-min Rain = 0
KRO1 141947Z 22011KT 27/13 A2992 RMK A01 T02730131  RH  041%=      5-min Rain = 0
KRO1 141948Z 23014KT 27/13 A2992 RMK A01 T02740130  RH  041%=      5-min Rain = 0
KRO1 141949Z 23014KT 27/13 A2992 RMK A01 T02730130  RH  041%=      5-min Rain = 0
KRO1 141950Z 21013KT 27/13 A2992 RMK A01 T02740131  RH  041%=      5-min Rain = 0
KRO1 141951Z 21013KT 27/13 A2992 RMK A01 T02740130  RH  041%=      5-min Rain = 0
KRO1 141952Z 21013KT 27/13 A2992 RMK A01 T02740130  RH  041%=      5-min Rain = 0
KRO1 141953Z 22013KT 27/13 A2992 RMK A01 T02730130  RH  041%=      5-min Rain = 0
KRO1 141954Z 23013KT 27/13 A2992 RMK A01 T02740131  RH  041%=      5-min Rain = 0
KRO1 141955Z 21014KT 28/13 A2992 RMK A01 T02750132  RH  041%=      5-min Rain = 0
KRO1 141956Z 20014KT 28/13 A2992 RMK A01 T02760133  RH  041%=      5-min Rain = 0
KRO1 141957Z 21015KT 28/13 A2992 RMK A01 T02760133  RH  041%=      5-min Rain = 0
KRO1 141958Z 21016KT 28/13 A2992 RMK A01 T02770134  RH  041%=      5-min Rain = 0
KRO1 141959Z 23013KT 28/13 A2992 RMK A01 T02770133  RH  041%=      5-min Rain = 0
KRO1 142000Z 23012KT 28/13 A2992 RMK A01 T02760134  RH  042%=      5-min Rain = 0
KRO1 142001Z 22013KT 28/13 A2991 RMK A01 T02770134  RH  041%=      5-min Rain = 0
KRO1 142002Z 22014KT 28/13 A2991 RMK A01 T02770134  RH  041%=      5-min Rain = 0
KRO1 142003Z 22013KT 28/14 A2991 RMK A01 T02780135  RH  042%=      5-min Rain = 0
KRO1 142004Z 20014KT 28/14 A2991 RMK A01 T02780135  RH  041%=      5-min Rain = 0
KRO1 142005Z 22013KT 28/14 A2991 RMK A01 T02770136  RH  042%=      5-min Rain = 0
KRO1 142006Z 24014KT 28/14 A2991 RMK A01 T02780136  RH  042%=      5-min Rain = 0
KRO1 142007Z 24011KT 28/14 A2991 RMK A01 T02780136  RH  042%=      5-min Rain = 0
KRO1 142008Z 23012KT 28/14 A2991 RMK A01 T02780137  RH  042%=      5-min Rain = 0
KRO1 142009Z 23013KT 28/14 A2991 RMK A01 T02780137  RH  042%=      5-min Rain = 0
KRO1 142010Z 24011KT 28/14 A2991 RMK A01 T02770136  RH  042%=      5-min Rain = 0
KRO1 142011Z 22015KT 28/14 A2991 RMK A01 T02770136  RH  042%=      5-min Rain = 0
KRO1 142012Z 21013KT 28/14 A2991 RMK A01 T02770136  RH  042%=      5-min Rain = 0
KRO1 142013Z 22013KT 28/14 A299 RMK A01 T02780136  RH  042%=      5-min Rain = 0
KRO1 142014Z 23014KT 28/14 A299 RMK A01 T02790136  RH  042%=      5-min Rain = 0
KRO1 142015Z 22015KT 28/14 A299 RMK A01 T02780135  RH  042%=      5-min Rain = 0
KRO1 142016Z 22013KT 28/14 A299 RMK A01 T02770136  RH  042%=      5-min Rain = 0
KRO1 142017Z 22012KT 28/14 A299 RMK A01 T02780135  RH  041%=      5-min Rain = 0
KRO1 142018Z 22010KT 28/14 A299 RMK A01 T02780135  RH  042%=      5-min Rain = 0
KRO1 142019Z 22017KT 28/14 A299 RMK A01 T02790137  RH  042%=      5-min Rain = 0
KRO1 142020Z 22014KT 28/14 A299 RMK A01 T02800137  RH  042%=      5-min Rain = 0
KRO1 142021Z 24014KT 28/14 A299 RMK A01 T02790137  RH  042%=      5-min Rain = 0
KRO1 142022Z 22014KT 28/14 A299 RMK A01 T02790137  RH  042%=      5-min Rain = 0
KRO1 142023Z 22016KT 28/14 A299 RMK A01 T02790137  RH  042%=      5-min Rain = 0
KRO1 142024Z 22017KT 28/14 A299 RMK A01 T02780137  RH  042%=      5-min Rain = 0
KRO1 142025Z 23017KT 28/14 A299 RMK A01 T02770138  RH  042%=      5-min Rain = 0
KRO1 142026Z 23014KT 28/14 A299 RMK A01 T02760138  RH  042%=      5-min Rain = 0
KRO1 142027Z 22016KT 28/14 A299 RMK A01 T02750138  RH  043%=      5-min Rain = 0
KRO1 142028Z 22015KT 28/14 A299 RMK A01 T02750138  RH  043%=      5-min Rain = 0
KRO1 142029Z 22013KT 28/14 A299 RMK A01 T02750139  RH  043%=      5-min Rain = 0
KRO1 142030Z 23015KT 28/14 A299 RMK A01 T02780139  RH  043%=      5-min Rain = 0
KRO1 142031Z 23014KT 28/14 A299 RMK A01 T02790139  RH  042%=      5-min Rain = 0
KRO1 142032Z 23011G16KT 28/14 A299 RMK A01 T02790139  RH  042%=      5-min Rain = 0
KRO1 142033Z 22013KT 28/14 A299 RMK A01 T02820140  RH  042%=      5-min Rain = 0
KRO1 142034Z 24014KT 28/14 A299 RMK A01 T02840140  RH  041%=      5-min Rain = 0
KRO1 142035Z 26011KT 29/14 A299 RMK A01 T02850140  RH  041%=      5-min Rain = 0
KRO1 142036Z 24012G17KT 28/14 A299 RMK A01 T02840140  RH  041%=      5-min Rain = 0
KRO1 142037Z 25015KT 28/14 A299 RMK A01 T02840141  RH  041%=      5-min Rain = 0
KRO1 142038Z 24014KT 29/14 A299 RMK A01 T02850139  RH  041%=      5-min Rain = 0
KRO1 142039Z 24010KT 29/14 A299 RMK A01 T02850141  RH  041%=      5-min Rain = 0
KRO1 142040Z 24013KT 29/14 A299 RMK A01 T02880140  RH  040%=      5-min Rain = 0
KRO1 142041Z 24012KT 29/14 A299 RMK A01 T02870140  RH  040%=      5-min Rain = 0
KRO1 142042Z 24012KT 29/14 A299 RMK A01 T02860141  RH  041%=      5-min Rain = 0
KRO1 142043Z 25011KT 29/14 A299 RMK A01 T02860140  RH  041%=      5-min Rain = 0
KRO1 142044Z 25011KT 29/14 A299 RMK A01 T02860139  RH  041%=      5-min Rain = 0
KRO1 142045Z 24010KT 29/14 A299 RMK A01 T02870140  RH  041%=      5-min Rain = 0
KRO1 142046Z 23011KT 29/14 A299 RMK A01 T02880141  RH  041%=      5-min Rain = 0
KRO1 142047Z 21011KT 29/14 A299 RMK A01 T02900143  RH  041%=      5-min Rain = 0
KRO1 142048Z 22010KT 29/14 A2989 RMK A01 T02920141  RH  040%=      5-min Rain = 0
KRO1 142049Z 22012KT 29/14 A2989 RMK A01 T02910142  RH  040%=      5-min Rain = 0
KRO1 142050Z 24009KT 29/14 A2989 RMK A01 T02920141  RH  040%=      5-min Rain = 0
KRO1 142051Z 25011KT 29/14 A2989 RMK A01 T02920140  RH  039%=      5-min Rain = 0
KRO1 142052Z 23010KT 29/14 A2989 RMK A01 T02910138  RH  039%=      5-min Rain = 0
KRO1 142053Z 22009KT 29/14 A2989 RMK A01 T02900140  RH  040%=      5-min Rain = 0
KRO1 142054Z 22012KT 29/14 A2989 RMK A01 T02910141  RH  040%=      5-min Rain = 0
KRO1 142055Z 21014KT 29/14 A2989 RMK A01 T02920140  RH  039%=      5-min Rain = 0
KRO1 142056Z 21013KT 29/14 A2989 RMK A01 T02900139  RH  039%=      5-min Rain = 0
KRO1 142057Z 22013KT 29/14 A2989 RMK A01 T02880138  RH  040%=      5-min Rain = 0
KRO1 142058Z 21013KT 29/14 A2989 RMK A01 T02880138  RH  040%=      5-min Rain = 0
KRO1 142059Z 21016KT 29/14 A2989 RMK A01 T02870137  RH  040%=      5-min Rain = 0
KRO1 142100Z 21018KT 29/14 A2989 RMK A01 T02850138  RH  040%=      5-min Rain = 0
KRO1 142101Z 21013KT 29/14 A2989 RMK A01 T02850138  RH  041%=      5-min Rain = 0
KRO1 142102Z 21015KT 29/14 A2989 RMK A01 T02860139  RH  040%=      5-min Rain = 0
KRO1 142103Z 21010KT 29/14 A299 RMK A01 T02870138  RH  040%=      5-min Rain = 0
KRO1 142104Z 21013KT 29/14 A2989 RMK A01 T02870139  RH  040%=      5-min Rain = 0
KRO1 142105Z 20013KT 29/14 A299 RMK A01 T02880139  RH  040%=      5-min Rain = 0
KRO1 142106Z 20012KT 29/14 A299 RMK A01 T02890139  RH  040%=      5-min Rain = 0
KRO1 142107Z 21012KT 29/14 A299 RMK A01 T02890140  RH  040%=      5-min Rain = 0
KRO1 142108Z 22015KT 29/14 A299 RMK A01 T02910140  RH  040%=      5-min Rain = 0
KRO1 142109Z 20014KT 29/14 A299 RMK A01 T02910139  RH  039%=      5-min Rain = 0
KRO1 142110Z 20013KT 29/14 A299 RMK A01 T02910140  RH  040%=      5-min Rain = 0
KRO1 142111Z 21012KT 29/14 A299 RMK A01 T02900139  RH  039%=      5-min Rain = 0
KRO1 142112Z 21016KT 29/14 A299 RMK A01 T02880139  RH  040%=      5-min Rain = 0
KRO1 142113Z 21014KT 29/14 A299 RMK A01 T02880139  RH  040%=      5-min Rain = 0
KRO1 142114Z 21016KT 29/14 A299 RMK A01 T02880139  RH  040%=      5-min Rain = 0
KRO1 142115Z 21012KT 29/14 A299 RMK A01 T02880139  RH  040%=      5-min Rain = 0
KRO1 142116Z 22010KT 29/14 A2989 RMK A01 T02870140  RH  040%=      5-min Rain = 0
KRO1 142117Z 21012G17KT 29/14 A2989 RMK A01 T02880140  RH  040%=      5-min Rain = 0
KRO1 142118Z 23012KT 29/14 A2989 RMK A01 T02910141  RH  040%=      5-min Rain = 0
KRO1 142119Z 23015KT 29/14 A2989 RMK A01 T02930139  RH  039%=      5-min Rain = 0
KRO1 142120Z 22015KT 29/14 A299 RMK A01 T02890138  RH  040%=      5-min Rain = 0
KRO1 142121Z 22012KT 29/14 A299 RMK A01 T02850139  RH  041%=      5-min Rain = 0
KRO1 142122Z 22013KT 28/14 A299 RMK A01 T02830140  RH  041%=      5-min Rain = 0
KRO1 142123Z 22010KT 28/14 A299 RMK A01 T02830141  RH  042%=      5-min Rain = 0
KRO1 142124Z 23010KT 29/14 A299 RMK A01 T02850142  RH  041%=      5-min Rain = 0
KRO1 142125Z 24013KT 29/14 A299 RMK A01 T02880141  RH  041%=      5-min Rain = 0
KRO1 142126Z 24013KT 29/14 A299 RMK A01 T02880140  RH  040%=      5-min Rain = 0
KRO1 142127Z 21014KT 29/14 A299 RMK A01 T02880140  RH  040%=      5-min Rain = 0
KRO1 142128Z 21010KT 29/14 A299 RMK A01 T02870140  RH  041%=      5-min Rain = 0
KRO1 142129Z 20012KT 29/14 A299 RMK A01 T02860140  RH  041%=      5-min Rain = 0
KRO1 142130Z 20016KT 29/14 A299 RMK A01 T02860139  RH  041%=      5-min Rain = 0
KRO1 142131Z 20016KT 28/14 A299 RMK A01 T02830138  RH  041%=      5-min Rain = 0
KRO1 142132Z 23013KT 28/14 A299 RMK A01 T02820138  RH  041%=      5-min Rain = 0
KRO1 142133Z 22014G19KT 28/14 A299 RMK A01 T02810137  RH  041%=      5-min Rain = 0
KRO1 142134Z 21013KT 28/14 A299 RMK A01 T02800138  RH  042%=      5-min Rain = 0
KRO1 142135Z 21012KT 28/14 A299 RMK A01 T02800139  RH  042%=      5-min Rain = 0
KRO1 142136Z 21013KT 28/14 A299 RMK A01 T02790140  RH  042%=      5-min Rain = 0
KRO1 142137Z 20014KT 28/14 A299 RMK A01 T02790139  RH  042%=      5-min Rain = 0
KRO1 142138Z 21014KT 28/14 A299 RMK A01 T02780139  RH  042%=      5-min Rain = 0
KRO1 142139Z 20014KT 28/14 A299 RMK A01 T02780140  RH  043%=      5-min Rain = 0
KRO1 142140Z 19017KT 28/14 A299 RMK A01 T02780141  RH  043%=      5-min Rain = 0
KRO1 142141Z 20014G19KT 28/14 A299 RMK A01 T02780141  RH  043%=      5-min Rain = 0
KRO1 142142Z 20019KT 28/14 A299 RMK A01 T02770141  RH  043%=      5-min Rain = 0
KRO1 142143Z 20015KT 28/14 A299 RMK A01 T02760141  RH  043%=      5-min Rain = 0
KRO1 142144Z 20016KT 28/14 A299 RMK A01 T02760141  RH  044%=      5-min Rain = 0
KRO1 142145Z 19015KT 28/14 A299 RMK A01 T02760140  RH  043%=      5-min Rain = 0
KRO1 142146Z 19014KT 28/14 A299 RMK A01 T02750139  RH  043%=      5-min Rain = 0
KRO1 142147Z 19014KT 28/14 A299 RMK A01 T02750139  RH  043%=      5-min Rain = 0
KRO1 142148Z 20014KT 28/14 A299 RMK A01 T02750140  RH  043%=      5-min Rain = 0
KRO1 142149Z 21015KT 28/14 A299 RMK A01 T02760140  RH  043%=      5-min Rain = 0
KRO1 142150Z 20011KT 28/14 A299 RMK A01 T02760140  RH  043%=      5-min Rain = 0
KRO1 142151Z 20011KT 28/14 A299 RMK A01 T02760141  RH  043%=      5-min Rain = 0
KRO1 142152Z 20013KT 28/14 A2989 RMK A01 T02790142  RH  043%=      5-min Rain = 0
KRO1 142153Z 19012KT 28/14 A2989 RMK A01 T02810142  RH  042%=      5-min Rain = 0
KRO1 142154Z 19013KT 28/14 A2989 RMK A01 T02810141  RH  042%=      5-min Rain = 0
KRO1 142155Z 18012KT 28/14 A2989 RMK A01 T02800142  RH  043%=      5-min Rain = 0
KRO1 142156Z 19016KT 28/14 A2989 RMK A01 T02790141  RH  043%=      5-min Rain = 0
KRO1 142157Z 19013KT 28/14 A2989 RMK A01 T02780142  RH  043%=      5-min Rain = 0
KRO1 142158Z 20012KT 28/14 A2989 RMK A01 T02770143  RH  044%=      5-min Rain = 0
KRO1 142159Z 20014KT 28/14 A2989 RMK A01 T02770142  RH  044%=      5-min Rain = 0
KRO1 142200Z 20014KT 28/14 A2989 RMK A01 T02750142  RH  044%=      5-min Rain = 0
KRO1 142201Z 20015KT 27/14 A2989 RMK A01 T02730141  RH  044%=      5-min Rain = 0
KRO1 142202Z 20014KT 27/14 A2989 RMK A01 T02720142  RH  045%=      5-min Rain = 0
KRO1 142203Z 20013KT 27/14 A2989 RMK A01 T02720141  RH  045%=      5-min Rain = 0
KRO1 142204Z 20012KT 27/14 A2989 RMK A01 T02730141  RH  044%=      5-min Rain = 0
KRO1 142205Z 21012KT 27/14 A2989 RMK A01 T02740142  RH  044%=      5-min Rain = 0
KRO1 142206Z 21014KT 28/14 A2989 RMK A01 T02750143  RH  044%=      5-min Rain = 0
KRO1 142207Z 21015KT 28/14 A2989 RMK A01 T02760142  RH  044%=      5-min Rain = 0
KRO1 142208Z 21015KT 28/14 A2989 RMK A01 T02750142  RH  044%=      5-min Rain = 0
KRO1 142209Z 20014KT 27/14 A2989 RMK A01 T02740143  RH  044%=      5-min Rain = 0
KRO1 142210Z 20015KT 27/14 A2989 RMK A01 T02730143  RH  045%=      5-min Rain = 0
KRO1 142211Z 20012KT 27/14 A2989 RMK A01 T02720143  RH  045%=      5-min Rain = 0
KRO1 142212Z 21012KT 27/14 A2989 RMK A01 T02720144  RH  045%=      5-min Rain = 0
KRO1 142213Z 21012KT 27/14 A2989 RMK A01 T02720144  RH  045%=      5-min Rain = 0
KRO1 142214Z 22011KT 27/15 A2989 RMK A01 T02720145  RH  045%=      5-min Rain = 0
KRO1 142215Z 21012KT 27/14 A2989 RMK A01 T02720144  RH  045%=      5-min Rain = 0
KRO1 142216Z 21011KT 27/14 A2989 RMK A01 T02720144  RH  046%=      5-min Rain = 0
KRO1 142217Z 21011KT 27/15 A2989 RMK A01 T02710145  RH  046%=      5-min Rain = 0
KRO1 142218Z 20012KT 27/14 A2989 RMK A01 T02710144  RH  046%=      5-min Rain = 0
KRO1 142219Z 20011KT 27/15 A2989 RMK A01 T02710145  RH  046%=      5-min Rain = 0
KRO1 142220Z 20013KT 27/15 A2989 RMK A01 T02710145  RH  046%=      5-min Rain = 0
KRO1 142221Z 20011KT 27/15 A2989 RMK A01 T02700145  RH  046%=      5-min Rain = 0
KRO1 142222Z 19009KT 27/15 A2989 RMK A01 T02700146  RH  047%=      5-min Rain = 0
KRO1 142223Z 18012KT 27/15 A2989 RMK A01 T02710146  RH  046%=      5-min Rain = 0
KRO1 142224Z 19013KT 27/15 A2989 RMK A01 T02710146  RH  046%=      5-min Rain = 0
KRO1 142225Z 19011KT 27/15 A2989 RMK A01 T02710146  RH  046%=      5-min Rain = 0
KRO1 142226Z 19013KT 27/15 A2989 RMK A01 T02700146  RH  046%=      5-min Rain = 0
KRO1 142227Z 20012KT 27/15 A2989 RMK A01 T02690145  RH  046%=      5-min Rain = 0
KRO1 142228Z 20012KT 27/15 A2989 RMK A01 T02680145  RH  047%=      5-min Rain = 0
KRO1 142229Z 20012KT 27/15 A2989 RMK A01 T02680146  RH  047%=      5-min Rain = 0
KRO1 142230Z 20013KT 27/15 A2989 RMK A01 T02680147  RH  047%=      5-min Rain = 0
KRO1 142231Z 19011KT 27/15 A2989 RMK A01 T02680148  RH  047%=      5-min Rain = 0
KRO1 142232Z 20008KT 27/15 A2989 RMK A01 T02680147  RH  048%=      5-min Rain = 0
KRO1 142233Z 21010KT 27/15 A2989 RMK A01 T02680147  RH  048%=      5-min Rain = 0
KRO1 142234Z 19009KT 27/15 A2989 RMK A01 T02680147  RH  048%=      5-min Rain = 0
KRO1 142235Z 19012KT 27/15 A2989 RMK A01 T02690148  RH  047%=      5-min Rain = 0
KRO1 142236Z 19011KT 27/15 A2989 RMK A01 T02700148  RH  047%=      5-min Rain = 0
KRO1 142237Z 18011KT 27/15 A2989 RMK A01 T02700148  RH  047%=      5-min Rain = 0
KRO1 142238Z 19011KT 27/15 A2989 RMK A01 T02690148  RH  048%=      5-min Rain = 0
KRO1 142239Z 19012KT 27/15 A2989 RMK A01 T02680148  RH  048%=      5-min Rain = 0
KRO1 142240Z 19013KT 27/15 A2989 RMK A01 T02680147  RH  047%=      5-min Rain = 0
KRO1 142241Z 19013KT 27/15 A2989 RMK A01 T02670146  RH  047%=      5-min Rain = 0
KRO1 142242Z 19013KT 27/15 A2989 RMK A01 T02670146  RH  048%=      5-min Rain = 0
KRO1 142243Z 18011KT 27/15 A2989 RMK A01 T02670147  RH  048%=      5-min Rain = 0
KRO1 142244Z 18010KT 27/15 A2989 RMK A01 T02660147  RH  048%=      5-min Rain = 0
KRO1 142245Z 18012KT 27/15 A2989 RMK A01 T02660147  RH  048%=      5-min Rain = 0
KRO1 142246Z 19011KT 27/15 A2989 RMK A01 T02660147  RH  048%=      5-min Rain = 0
KRO1 142247Z 18010KT 27/15 A2989 RMK A01 T02660148  RH  048%=      5-min Rain = 0
KRO1 142248Z 19010KT 27/15 A2989 RMK A01 T02660148  RH  048%=      5-min Rain = 0
KRO1 142249Z 19009KT 27/15 A2989 RMK A01 T02660149  RH  048%=      5-min Rain = 0
KRO1 142250Z 20011KT 27/15 A2989 RMK A01 T02650149  RH  049%=      5-min Rain = 0
KRO1 142251Z 20010KT 27/15 A2989 RMK A01 T02650148  RH  049%=      5-min Rain = 0
KRO1 142252Z 20012KT 26/15 A2989 RMK A01 T02640148  RH  049%=      5-min Rain = 0
KRO1 142253Z 18012KT 26/15 A2989 RMK A01 T02640147  RH  049%=      5-min Rain = 0
KRO1 142254Z 19014KT 26/15 A2989 RMK A01 T02630146  RH  049%=      5-min Rain = 0
KRO1 142255Z 20012KT 26/15 A2989 RMK A01 T02630146  RH  049%=      5-min Rain = 0
KRO1 142256Z 19010KT 26/15 A2989 RMK A01 T02620146  RH  049%=      5-min Rain = 0
KRO1 142257Z 19010KT 26/15 A2989 RMK A01 T02620146  RH  049%=      5-min Rain = 0
KRO1 142258Z 19011KT 26/15 A2989 RMK A01 T02620146  RH  049%=      5-min Rain = 0
KRO1 142259Z 20011KT 26/15 A2989 RMK A01 T02620146  RH  049%=      5-min Rain = 0
KRO1 142300Z 19011KT 26/15 A2989 RMK A01 T02620147  RH  049%=      5-min Rain = 0
KRO1 142301Z 19010KT 26/15 A2989 RMK A01 T02610147  RH  049%=      5-min Rain = 0
KRO1 142302Z 18012KT 26/15 A2989 RMK A01 T02610147  RH  049%=      5-min Rain = 0
KRO1 142303Z 19013KT 26/15 A2989 RMK A01 T02610146  RH  049%=      5-min Rain = 0
KRO1 142304Z 20012KT 26/15 A2989 RMK A01 T02610147  RH  049%=      5-min Rain = 0
KRO1 142305Z 20010KT 26/15 A2989 RMK A01 T02600147  RH  049%=      5-min Rain = 0
KRO1 142306Z 20009KT 26/15 A2989 RMK A01 T02600147  RH  050%=      5-min Rain = 0
KRO1 142307Z 20008KT 26/15 A2989 RMK A01 T02600147  RH  050%=      5-min Rain = 0
KRO1 142308Z 19009KT 26/15 A299 RMK A01 T02600148  RH  050%=      5-min Rain = 0
KRO1 142309Z 19011KT 26/15 A299 RMK A01 T02600149  RH  050%=      5-min Rain = 0
KRO1 142310Z 19010KT 26/15 A299 RMK A01 T02600149  RH  050%=      5-min Rain = 0
KRO1 142311Z 19010KT 26/15 A299 RMK A01 T02600149  RH  050%=      5-min Rain = 0
KRO1 142312Z 19009KT 26/15 A299 RMK A01 T02600149  RH  050%=      5-min Rain = 0
KRO1 142313Z 20009KT 26/15 A299 RMK A01 T02600149  RH  050%=      5-min Rain = 0
KRO1 142314Z 20008KT 26/15 A299 RMK A01 T02600149  RH  050%=      5-min Rain = 0
KRO1 142315Z 19008KT 26/15 A299 RMK A01 T02600149  RH  050%=      5-min Rain = 0
KRO1 142316Z 19008KT 26/15 A299 RMK A01 T02600149  RH  050%=      5-min Rain = 0
KRO1 142317Z 19009KT 26/15 A299 RMK A01 T02600149  RH  050%=      5-min Rain = 0
KRO1 142318Z 19011KT 26/15 A299 RMK A01 T02600149  RH  050%=      5-min Rain = 0
KRO1 142319Z 20010KT 26/15 A299 RMK A01 T02600149  RH  050%=      5-min Rain = 0
KRO1 142320Z 20008KT 26/15 A299 RMK A01 T02600149  RH  050%=      5-min Rain = 0
KRO1 142321Z 20008KT 26/15 A299 RMK A01 T02600149  RH  050%=      5-min Rain = 0
KRO1 142322Z 19008G13KT 26/15 A299 RMK A01 T02600150  RH  051%=      5-min Rain = 0
KRO1 142323Z 19011KT 26/15 A299 RMK A01 T02600150  RH  050%=      5-min Rain = 0
KRO1 142324Z 19010KT 26/15 A299 RMK A01 T02600149  RH  050%=      5-min Rain = 0
KRO1 142325Z 20010KT 26/15 A299 RMK A01 T02600150  RH  051%=      5-min Rain = 0
KRO1 142326Z 19010KT 26/15 A299 RMK A01 T02600150  RH  051%=      5-min Rain = 0
KRO1 142327Z 19011KT 26/15 A299 RMK A01 T02600150  RH  051%=      5-min Rain = 0
KRO1 142328Z 19011KT 26/15 A299 RMK A01 T02590151  RH  051%=      5-min Rain = 0
KRO1 142329Z 19012KT 26/15 A299 RMK A01 T02590152  RH  051%=      5-min Rain = 0
KRO1 142330Z 19009KT 26/15 A299 RMK A01 T02590152  RH  051%=      5-min Rain = 0
KRO1 142331Z 18008KT 26/15 A299 RMK A01 T02590152  RH  052%=      5-min Rain = 0
KRO1 142332Z 18010KT 26/15 A299 RMK A01 T02590153  RH  052%=      5-min Rain = 0
KRO1 142333Z 19012KT 26/15 A299 RMK A01 T02590153  RH  052%=      5-min Rain = 0
KRO1 142334Z 19009KT 26/15 A299 RMK A01 T02590153  RH  052%=      5-min Rain = 0
KRO1 142335Z 19008KT 26/15 A299 RMK A01 T02580153  RH  052%=      5-min Rain = 0
KRO1 142336Z 19008KT 26/15 A299 RMK A01 T02580153  RH  052%=      5-min Rain = 0
KRO1 142337Z 19009KT 26/15 A299 RMK A01 T02580154  RH  052%=      5-min Rain = 0
KRO1 142338Z 19009KT 26/15 A299 RMK A01 T02580154  RH  052%=      5-min Rain = 0
KRO1 142339Z 18007KT 26/15 A299 RMK A01 T02580153  RH  052%=      5-min Rain = 0
KRO1 142340Z 19008KT 26/15 A299 RMK A01 T02580153  RH  052%=      5-min Rain = 0
KRO1 142341Z 19010KT 26/15 A299 RMK A01 T02580154  RH  052%=      5-min Rain = 0
KRO1 142342Z 20009KT 26/15 A299 RMK A01 T02580153  RH  052%=      5-min Rain = 0
KRO1 142343Z 19008KT 26/15 A299 RMK A01 T02580153  RH  052%=      5-min Rain = 0
KRO1 142344Z 18010KT 26/15 A299 RMK A01 T02580153  RH  052%=      5-min Rain = 0
KRO1 142345Z 19012KT 26/15 A299 RMK A01 T02580153  RH  052%=      5-min Rain = 0
KRO1 142346Z 18010KT 26/15 A299 RMK A01 T02580153  RH  052%=      5-min Rain = 0
KRO1 142347Z 18011KT 26/15 A299 RMK A01 T02580153  RH  052%=      5-min Rain = 0
KRO1 142348Z 18008KT 26/15 A299 RMK A01 T02580153  RH  052%=      5-min Rain = 0
KRO1 142349Z 18006KT 26/15 A299 RMK A01 T02580154  RH  052%=      5-min Rain = 0
KRO1 142350Z 17009KT 26/15 A299 RMK A01 T02580154  RH  053%=      5-min Rain = 0
KRO1 142351Z 18010KT 26/15 A299 RMK A01 T02580154  RH  052%=      5-min Rain = 0
KRO1 142352Z 18011KT 26/15 A299 RMK A01 T02580154  RH  053%=      5-min Rain = 0
KRO1 142353Z 18009KT 26/15 A299 RMK A01 T02580154  RH  053%=      5-min Rain = 0
KRO1 142354Z 17010KT 26/15 A2989 RMK A01 T02570153  RH  053%=      5-min Rain = 0
KRO1 142355Z 18011KT 26/15 A2989 RMK A01 T02570154  RH  053%=      5-min Rain = 0
KRO1 142356Z 17010KT 26/15 A2989 RMK A01 T02560153  RH  053%=      5-min Rain = 0
KRO1 142357Z 18011KT 26/15 A2989 RMK A01 T02560153  RH  053%=      5-min Rain = 0
KRO1 142358Z 18013KT 26/15 A2989 RMK A01 T02550154  RH  053%=      5-min Rain = 0
KRO1 142359Z 17013KT 26/15 A2989 RMK A01 T02550153  RH  053%=      5-min Rain = 0
KRO1 150000Z 18011KT 25/15 A2989 RMK A01 T02540153  RH  054%=      5-min Rain = 0
KRO1 150001Z 18010KT 25/15 A2989 RMK A01 T02540153  RH  054%=      5-min Rain = 0
KRO1 150002Z 18010KT 25/15 A2989 RMK A01 T02530153  RH  054%=      5-min Rain = 0
KRO1 150003Z 18009KT 25/15 A2989 RMK A01 T02530154  RH  054%=      5-min Rain = 0
KRO1 150004Z 17012KT 25/15 A2989 RMK A01 T02520153  RH  054%=      5-min Rain = 0
KRO1 150005Z 18011KT 25/15 A2989 RMK A01 T02520153  RH  054%=      5-min Rain = 0
KRO1 150006Z 18011KT 25/15 A2989 RMK A01 T02510153  RH  054%=      5-min Rain = 0
KRO1 150007Z 17009KT 25/15 A2989 RMK A01 T02510153  RH  054%=      5-min Rain = 0
KRO1 150008Z 17010KT 25/15 A2989 RMK A01 T02510153  RH  054%=      5-min Rain = 0
KRO1 150009Z 18011KT 25/15 A299 RMK A01 T02500153  RH  055%=      5-min Rain = 0
KRO1 150010Z 17010KT 25/15 A299 RMK A01 T02500153  RH  055%=      5-min Rain = 0
KRO1 150011Z 18010KT 25/15 A299 RMK A01 T02500153  RH  055%=      5-min Rain = 0
KRO1 150012Z 18010KT 25/15 A299 RMK A01 T02490153  RH  055%=      5-min Rain = 0
KRO1 150013Z 18010KT 25/15 A299 RMK A01 T02480153  RH  055%=      5-min Rain = 0
KRO1 150014Z 17009KT 25/15 A299 RMK A01 T02480153  RH  055%=      5-min Rain = 0
KRO1 150015Z 18011KT 25/15 A299 RMK A01 T02480153  RH  055%=      5-min Rain = 0
KRO1 150016Z 17009KT 25/15 A299 RMK A01 T02470153  RH  056%=      5-min Rain = 0
KRO1 150017Z 18012KT 25/15 A299 RMK A01 T02470153  RH  056%=      5-min Rain = 0
KRO1 150018Z 17011KT 25/15 A299 RMK A01 T02470153  RH  056%=      5-min Rain = 0
KRO1 150019Z 17009KT 25/15 A299 RMK A01 T02470153  RH  056%=      5-min Rain = 0
KRO1 150020Z 18009KT 25/15 A299 RMK A01 T02460153  RH  056%=      5-min Rain = 0
KRO1 150021Z 18012KT 25/15 A299 RMK A01 T02450153  RH  056%=      5-min Rain = 0
KRO1 150022Z 17010KT 25/15 A299 RMK A01 T02450153  RH  056%=      5-min Rain = 0
KRO1 150023Z 17010KT 25/15 A299 RMK A01 T02450153  RH  056%=      5-min Rain = 0
KRO1 150024Z 17011KT 25/15 A299 RMK A01 T02450153  RH  057%=      5-min Rain = 0
KRO1 150025Z 18009KT 24/15 A299 RMK A01 T02440153  RH  057%=      5-min Rain = 0
KRO1 150026Z 18011KT 24/15 A299 RMK A01 T02440153  RH  057%=      5-min Rain = 0
KRO1 150027Z 18012KT 24/15 A299 RMK A01 T02430153  RH  057%=      5-min Rain = 0
KRO1 150028Z 17010KT 24/15 A299 RMK A01 T02420153  RH  057%=      5-min Rain = 0
KRO1 150029Z 17011KT 24/15 A299 RMK A01 T02420153  RH  058%=      5-min Rain = 0
KRO1 150030Z 17012KT 24/15 A299 RMK A01 T02410153  RH  058%=      5-min Rain = 0
KRO1 150031Z 17011KT 24/15 A299 RMK A01 T02410154  RH  058%=      5-min Rain = 0
KRO1 150032Z 18012KT 24/15 A299 RMK A01 T02410154  RH  058%=      5-min Rain = 0
KRO1 150033Z 18014KT 24/15 A299 RMK A01 T02410154  RH  058%=      5-min Rain = 0
KRO1 150034Z 18012KT 24/15 A299 RMK A01 T02410154  RH  058%=      5-min Rain = 0
KRO1 150035Z 18012KT 24/15 A299 RMK A01 T02410154  RH  058%=      5-min Rain = 0
KRO1 150036Z 18011KT 24/15 A299 RMK A01 T02410154  RH  058%=      5-min Rain = 0
KRO1 150037Z 17010KT 24/15 A299 RMK A01 T02400154  RH  059%=      5-min Rain = 0
KRO1 150038Z 18009KT 24/15 A299 RMK A01 T02390154  RH  059%=      5-min Rain = 0
KRO1 150039Z 18010KT 24/15 A299 RMK A01 T02380154  RH  059%=      5-min Rain = 0
KRO1 150040Z 18010KT 24/15 A299 RMK A01 T02380154  RH  059%=      5-min Rain = 0
KRO1 150041Z 18008KT 24/15 A299 RMK A01 T02370154  RH  060%=      5-min Rain = 0
KRO1 150042Z 18008KT 24/15 A299 RMK A01 T02370154  RH  060%=      5-min Rain = 0
KRO1 150043Z 17008KT 24/15 A299 RMK A01 T02360154  RH  060%=      5-min Rain = 0
KRO1 150044Z 17010KT 24/15 A299 RMK A01 T02350154  RH  060%=      5-min Rain = 0
KRO1 150045Z 17010KT 24/15 A299 RMK A01 T02350154  RH  060%=      5-min Rain = 0
KRO1 150046Z 17011KT 24/16 A299 RMK A01 T02350155  RH  061%=      5-min Rain = 0
KRO1 150047Z 17009KT 24/16 A299 RMK A01 T02350155  RH  061%=      5-min Rain = 0
KRO1 150048Z 17010KT 23/16 A299 RMK A01 T02340155  RH  061%=      5-min Rain = 0
KRO1 150049Z 17009KT 23/16 A299 RMK A01 T02340155  RH  061%=      5-min Rain = 0
KRO1 150050Z 18008KT 23/16 A299 RMK A01 T02330155  RH  061%=      5-min Rain = 0
KRO1 150051Z 17009KT 23/16 A299 RMK A01 T02330155  RH  062%=      5-min Rain = 0
KRO1 150052Z 18009KT 23/16 A299 RMK A01 T02320156  RH  062%=      5-min Rain = 0
KRO1 150053Z 18010KT 23/16 A299 RMK A01 T02310156  RH  062%=      5-min Rain = 0
KRO1 150054Z 17009KT 23/16 A299 RMK A01 T02310156  RH  063%=      5-min Rain = 0
KRO1 150055Z 17009KT 23/16 A299 RMK A01 T02310156  RH  063%=      5-min Rain = 0
KRO1 150056Z 18011KT 23/16 A299 RMK A01 T02300157  RH  063%=      5-min Rain = 0
KRO1 150057Z 18009KT 23/16 A299 RMK A01 T02300156  RH  063%=      5-min Rain = 0
KRO1 150058Z 18010KT 23/16 A299 RMK A01 T02300157  RH  063%=      5-min Rain = 0
KRO1 150059Z 18011KT 23/16 A299 RMK A01 T02290157  RH  063%=      5-min Rain = 0
KRO1 150100Z 18010KT 23/16 A299 RMK A01 T02290157  RH  064%=      5-min Rain = 0
KRO1 150101Z 18010KT 23/16 A299 RMK A01 T02300157  RH  063%=      5-min Rain = 0
KRO1 150102Z 17010KT 23/16 A299 RMK A01 T02300157  RH  064%=      5-min Rain = 0
KRO1 150103Z 18012KT 23/16 A299 RMK A01 T02300157  RH  064%=      5-min Rain = 0
KRO1 150104Z 17011KT 23/16 A299 RMK A01 T02300157  RH  064%=      5-min Rain = 0
KRO1 150105Z 18012KT 23/16 A299 RMK A01 T02300157  RH  064%=      5-min Rain = 0
KRO1 150106Z 17010KT 23/16 A299 RMK A01 T02290157  RH  064%=      5-min Rain = 0
KRO1 150107Z 18010KT 23/16 A299 RMK A01 T02290157  RH  064%=      5-min Rain = 0
KRO1 150108Z 18012KT 23/16 A299 RMK A01 T02290157  RH  064%=      5-min Rain = 0
KRO1 150109Z 18011KT 23/16 A299 RMK A01 T02280157  RH  064%=      5-min Rain = 0
KRO1 150110Z 18011KT 23/16 A299 RMK A01 T02280157  RH  064%=      5-min Rain = 0
KRO1 150111Z 18011KT 23/16 A299 RMK A01 T02280157  RH  064%=      5-min Rain = 0
KRO1 150112Z 18011KT 23/16 A299 RMK A01 T02280157  RH  064%=      5-min Rain = 0
KRO1 150113Z 17012KT 23/16 A299 RMK A01 T02280157  RH  064%=      5-min Rain = 0
KRO1 150114Z 17010KT 23/16 A299 RMK A01 T02280157  RH  064%=      5-min Rain = 0
KRO1 150115Z 17010KT 23/16 A299 RMK A01 T02280157  RH  064%=      5-min Rain = 0
KRO1 150116Z 17009KT 23/16 A299 RMK A01 T02280157  RH  064%=      5-min Rain = 0
KRO1 150117Z 17009KT 23/16 A299 RMK A01 T02280157  RH  064%=      5-min Rain = 0
KRO1 150118Z 17009KT 23/16 A299 RMK A01 T02270157  RH  064%=      5-min Rain = 0
KRO1 150119Z 17008KT 23/16 A299 RMK A01 T02270157  RH  065%=      5-min Rain = 0
KRO1 150120Z 17008KT 23/16 A2991 RMK A01 T02260157  RH  065%=      5-min Rain = 0
KRO1 150121Z 17008KT 23/16 A2991 RMK A01 T02260156  RH  065%=      5-min Rain = 0
KRO1 150122Z 17007KT 23/16 A2991 RMK A01 T02250157  RH  065%=      5-min Rain = 0
KRO1 150123Z 17007KT 23/16 A2991 RMK A01 T02250156  RH  065%=      5-min Rain = 0
KRO1 150124Z 17007KT 22/16 A2991 RMK A01 T02240156  RH  065%=      5-min Rain = 0
KRO1 150125Z 17007KT 22/16 A2991 RMK A01 T02240156  RH  065%=      5-min Rain = 0
KRO1 150126Z 17006KT 22/16 A2991 RMK A01 T02230156  RH  066%=      5-min Rain = 0
KRO1 150127Z 17007KT 22/16 A2991 RMK A01 T02220156  RH  066%=      5-min Rain = 0
KRO1 150128Z 18006KT 22/16 A2991 RMK A01 T02220155  RH  066%=      5-min Rain = 0
KRO1 150129Z 18006KT 22/16 A2991 RMK A01 T02210155  RH  066%=      5-min Rain = 0
KRO1 150130Z 18007KT 22/16 A2991 RMK A01 T02200155  RH  067%=      5-min Rain = 0
KRO1 150131Z 18007KT 22/16 A2991 RMK A01 T02200156  RH  067%=      5-min Rain = 0
KRO1 150132Z 18006KT 22/16 A2991 RMK A01 T02200156  RH  067%=      5-min Rain = 0
KRO1 150133Z 18006KT 22/16 A2991 RMK A01 T02200155  RH  067%=      5-min Rain = 0
KRO1 150134Z 18005KT 22/16 A2991 RMK A01 T02190155  RH  067%=      5-min Rain = 0
KRO1 150135Z 18006KT 22/16 A2991 RMK A01 T02180155  RH  067%=      5-min Rain = 0
KRO1 150136Z 18006KT 22/16 A2991 RMK A01 T02170155  RH  068%=      5-min Rain = 0
KRO1 150137Z 18006KT 22/16 A2991 RMK A01 T02170155  RH  068%=      5-min Rain = 0
KRO1 150138Z 18005KT 22/16 A2992 RMK A01 T02170155  RH  068%=      5-min Rain = 0
KRO1 150139Z 18005KT 22/16 A2992 RMK A01 T02160155  RH  068%=      5-min Rain = 0
KRO1 150140Z 18005KT 22/16 A2992 RMK A01 T02160155  RH  068%=      5-min Rain = 0
KRO1 150141Z 18005KT 22/15 A2992 RMK A01 T02150154  RH  068%=      5-min Rain = 0
KRO1 150142Z 18005KT 21/15 A2992 RMK A01 T02140154  RH  069%=      5-min Rain = 0
KRO1 150143Z 18005KT 21/16 A2992 RMK A01 T02140155  RH  069%=      5-min Rain = 0
KRO1 150144Z 18005KT 21/15 A2992 RMK A01 T02140154  RH  069%=      5-min Rain = 0
KRO1 150145Z 18005KT 21/15 A2992 RMK A01 T02130154  RH  069%=      5-min Rain = 0
KRO1 150146Z 17005KT 21/15 A2992 RMK A01 T02130154  RH  069%=      5-min Rain = 0
KRO1 150147Z 17005KT 21/15 A2992 RMK A01 T02130154  RH  069%=      5-min Rain = 0
KRO1 150148Z 17005KT 21/15 A2992 RMK A01 T02120154  RH  069%=      5-min Rain = 0
KRO1 150149Z 17005KT 21/15 A2992 RMK A01 T02120154  RH  069%=      5-min Rain = 0
KRO1 150150Z 17005KT 21/15 A2992 RMK A01 T02120154  RH  069%=      5-min Rain = 0
KRO1 150151Z 17005KT 21/15 A2992 RMK A01 T02120154  RH  069%=      5-min Rain = 0
KRO1 150152Z 17006KT 21/15 A2992 RMK A01 T02120154  RH  070%=      5-min Rain = 0
KRO1 150153Z 17005KT 21/15 A2992 RMK A01 T02120154  RH  070%=      5-min Rain = 0
KRO1 150154Z 17006KT 21/15 A2992 RMK A01 T02120154  RH  070%=      5-min Rain = 0
KRO1 150155Z 17005KT 21/15 A2992 RMK A01 T02110153  RH  069%=      5-min Rain = 0
KRO1 150156Z 17005KT 21/15 A2992 RMK A01 T02110153  RH  069%=      5-min Rain = 0
KRO1 150157Z 17004KT 21/15 A2992 RMK A01 T02110153  RH  069%=      5-min Rain = 0
KRO1 150158Z 17004KT 21/15 A2992 RMK A01 T02110153  RH  070%=      5-min Rain = 0
KRO1 150159Z 18004KT 21/15 A2992 RMK A01 T02100153  RH  070%=      5-min Rain = 0
KRO1 150200Z 18004KT 21/15 A2993 RMK A01 T02100153  RH  070%=      5-min Rain = 0
KRO1 150201Z 18004KT 21/15 A2993 RMK A01 T02090153  RH  070%=      5-min Rain = 0
KRO1 150202Z 18004KT 21/15 A2993 RMK A01 T02090153  RH  070%=      5-min Rain = 0
KRO1 150203Z 18004KT 21/15 A2993 RMK A01 T02090153  RH  070%=      5-min Rain = 0
KRO1 150204Z 18005KT 21/15 A2993 RMK A01 T02090153  RH  070%=      5-min Rain = 0
KRO1 150205Z 18005KT 21/15 A2993 RMK A01 T02090153  RH  070%=      5-min Rain = 0
KRO1 150206Z 17005KT 21/15 A2992 RMK A01 T02090153  RH  070%=      5-min Rain = 0
KRO1 150207Z 17006KT 21/15 A2992 RMK A01 T02090153  RH  070%=      5-min Rain = 0
KRO1 150208Z 17005KT 21/15 A2992 RMK A01 T02090153  RH  070%=      5-min Rain = 0
KRO1 150209Z 17005KT 21/15 A2992 RMK A01 T02090153  RH  070%=      5-min Rain = 0
KRO1 150210Z 17005KT 21/15 A2992 RMK A01 T02080153  RH  070%=      5-min Rain = 0
KRO1 150211Z 17005KT 21/15 A2992 RMK A01 T02080153  RH  071%=      5-min Rain = 0
KRO1 150212Z 17005KT 21/15 A2992 RMK A01 T02080153  RH  071%=      5-min Rain = 0
KRO1 150213Z 16005KT 21/15 A2992 RMK A01 T02080153  RH  071%=      5-min Rain = 0
KRO1 150214Z 16005KT 21/15 A2992 RMK A01 T02070152  RH  071%=      5-min Rain = 0
KRO1 150215Z 16006KT 21/15 A2992 RMK A01 T02070153  RH  071%=      5-min Rain = 0
KRO1 150216Z 16005KT 21/15 A2992 RMK A01 T02070152  RH  071%=      5-min Rain = 0
KRO1 150217Z 16005KT 21/15 A2992 RMK A01 T02070153  RH  071%=      5-min Rain = 0
KRO1 150218Z 16005KT 21/15 A2992 RMK A01 T02060152  RH  071%=      5-min Rain = 0
KRO1 150219Z 16005KT 21/15 A2992 RMK A01 T02060152  RH  071%=      5-min Rain = 0
KRO1 150220Z 16005KT 21/15 A2993 RMK A01 T02060152  RH  071%=      5-min Rain = 0
KRO1 150221Z 16005KT 21/15 A2993 RMK A01 T02050152  RH  072%=      5-min Rain = 0
KRO1 150222Z 16005KT 21/15 A2993 RMK A01 T02050152  RH  072%=      5-min Rain = 0
KRO1 150223Z 16005KT 20/15 A2993 RMK A01 T02040152  RH  072%=      5-min Rain = 0
KRO1 150224Z 16005KT 21/15 A2993 RMK A01 T02050152  RH  072%=      5-min Rain = 0
KRO1 150225Z 16005KT 21/15 A2993 RMK A01 T02050152  RH  072%=      5-min Rain = 0
KRO1 150226Z 16005KT 21/15 A2993 RMK A01 T02050152  RH  072%=      5-min Rain = 0
KRO1 150227Z 16005KT 21/15 A2993 RMK A01 T02050152  RH  072%=      5-min Rain = 0
KRO1 150228Z 16005KT 21/15 A2993 RMK A01 T02050151  RH  071%=      5-min Rain = 0
KRO1 150229Z 16005KT 20/15 A2993 RMK A01 T02040152  RH  072%=      5-min Rain = 0
KRO1 150230Z 16005KT 20/15 A2993 RMK A01 T02040152  RH  072%=      5-min Rain = 0
KRO1 150231Z 16005KT 20/15 A2993 RMK A01 T02040152  RH  072%=      5-min Rain = 0
KRO1 150232Z 16005KT 20/15 A2993 RMK A01 T02040152  RH  072%=      5-min Rain = 0
KRO1 150233Z 16005KT 20/15 A2993 RMK A01 T02040152  RH  072%=      5-min Rain = 0
KRO1 150234Z 16006KT 20/15 A2993 RMK A01 T02030151  RH  072%=      5-min Rain = 0
KRO1 150235Z 16006KT 20/15 A2993 RMK A01 T02030152  RH  072%=      5-min Rain = 0
KRO1 150236Z 16007KT 20/15 A2993 RMK A01 T02030152  RH  072%=      5-min Rain = 0
KRO1 150237Z 16006KT 20/15 A2993 RMK A01 T02020152  RH  073%=      5-min Rain = 0
KRO1 150238Z 16006KT 20/15 A2993 RMK A01 T02020152  RH  073%=      5-min Rain = 0
KRO1 150239Z 16006KT 20/15 A2993 RMK A01 T02020151  RH  072%=      5-min Rain = 0
KRO1 150240Z 16007KT 20/15 A2993 RMK A01 T02020151  RH  073%=      5-min Rain = 0
KRO1 150241Z 16007KT 20/15 A2992 RMK A01 T02010151  RH  073%=      5-min Rain = 0
KRO1 150242Z 16007KT 20/15 A2992 RMK A01 T02010152  RH  073%=      5-min Rain = 0
KRO1 150243Z 16007KT 20/15 A2992 RMK A01 T02010151  RH  073%=      5-min Rain = 0
KRO1 150244Z 16007KT 20/15 A2992 RMK A01 T02010151  RH  073%=      5-min Rain = 0
KRO1 150245Z 16007KT 20/15 A2992 RMK A01 T02010151  RH  073%=      5-min Rain = 0
KRO1 150246Z 16008KT 20/15 A2992 RMK A01 T02010151  RH  073%=      5-min Rain = 0
KRO1 150247Z 17008KT 20/15 A2992 RMK A01 T02020152  RH  073%=      5-min Rain = 0
KRO1 150248Z 17008KT 20/15 A2992 RMK A01 T02020151  RH  073%=      5-min Rain = 0
KRO1 150249Z 17007KT 20/15 A2992 RMK A01 T02020152  RH  073%=      5-min Rain = 0
KRO1 150250Z 17008KT 20/15 A2992 RMK A01 T02020152  RH  073%=      5-min Rain = 0
KRO1 150251Z 17007KT 20/15 A2992 RMK A01 T02030152  RH  073%=      5-min Rain = 0
KRO1 150252Z 17008KT 20/15 A2992 RMK A01 T02030152  RH  073%=      5-min Rain = 0
KRO1 150253Z 17008KT 20/15 A2992 RMK A01 T02030152  RH  073%=      5-min Rain = 0
KRO1 150254Z 17008KT 20/15 A2992 RMK A01 T02030152  RH  073%=      5-min Rain = 0
KRO1 150255Z 17008KT 20/15 A2993 RMK A01 T02030152  RH  073%=      5-min Rain = 0
KRO1 150256Z 18008KT 20/15 A2993 RMK A01 T02030153  RH  073%=      5-min Rain = 0
KRO1 150257Z 18009KT 20/15 A2993 RMK A01 T02020152  RH  073%=      5-min Rain = 0
KRO1 150258Z 18008KT 20/15 A2993 RMK A01 T02020153  RH  073%=      5-min Rain = 0
KRO1 150259Z 18009KT 20/15 A2993 RMK A01 T02030153  RH  073%=      5-min Rain = 0
KRO1 150300Z 18008KT 20/15 A2993 RMK A01 T02030153  RH  073%=      5-min Rain = 0
KRO1 150301Z 18009KT 20/15 A2993 RMK A01 T02030153  RH  073%=      5-min Rain = 0
KRO1 150302Z 18008KT 20/15 A2993 RMK A01 T02040154  RH  073%=      5-min Rain = 0
KRO1 150303Z 17008KT 20/15 A2993 RMK A01 T02040154  RH  073%=      5-min Rain = 0
KRO1 150304Z 17009KT 20/15 A2993 RMK A01 T02040154  RH  073%=      5-min Rain = 0
KRO1 150305Z 17009KT 21/15 A2993 RMK A01 T02050154  RH  073%=      5-min Rain = 0
KRO1 150306Z 17008KT 21/15 A2993 RMK A01 T02050154  RH  073%=      5-min Rain = 0
KRO1 150307Z 17007KT 21/15 A2993 RMK A01 T02050154  RH  073%=      5-min Rain = 0
KRO1 150308Z 17008KT 20/15 A2993 RMK A01 T02040154  RH  073%=      5-min Rain = 0
KRO1 150309Z 17008KT 20/15 A2993 RMK A01 T02040154  RH  073%=      5-min Rain = 0
KRO1 150310Z 17009KT 20/15 A2993 RMK A01 T02040154  RH  073%=      5-min Rain = 0
KRO1 150311Z 17009KT 21/16 A2992 RMK A01 T02050155  RH  073%=      5-min Rain = 0
KRO1 150312Z 17009KT 21/15 A2993 RMK A01 T02050154  RH  073%=      5-min Rain = 0
KRO1 150313Z 18008KT 21/16 A2993 RMK A01 T02050155  RH  073%=      5-min Rain = 0
KRO1 150314Z 18008KT 21/16 A2993 RMK A01 T02050155  RH  073%=      5-min Rain = 0
KRO1 150315Z 18009KT 21/16 A2993 RMK A01 T02050155  RH  073%=      5-min Rain = 0
KRO1 150316Z 18009KT 21/16 A2993 RMK A01 T02050155  RH  073%=      5-min Rain = 0
KRO1 150317Z 18009KT 21/16 A2993 RMK A01 T02050156  RH  073%=      5-min Rain = 0
KRO1 150318Z 18009KT 21/16 A2993 RMK A01 T02050156  RH  073%=      5-min Rain = 0
KRO1 150319Z 18008KT 21/16 A2993 RMK A01 T02050156  RH  073%=      5-min Rain = 0
KRO1 150320Z 18008KT 21/16 A2993 RMK A01 T02060156  RH  073%=      5-min Rain = 0
KRO1 150321Z 18008KT 21/16 A2993 RMK A01 T02050156  RH  073%=      5-min Rain = 0
KRO1 150322Z 18009KT 21/16 A2993 RMK A01 T02050156  RH  073%=      5-min Rain = 0
KRO1 150323Z 18008KT 21/16 A2993 RMK A01 T02060157  RH  073%=      5-min Rain = 0
KRO1 150324Z 18009KT 21/16 A2993 RMK A01 T02050156  RH  073%=      5-min Rain = 0
KRO1 150325Z 18008KT 21/16 A2993 RMK A01 T02050156  RH  073%=      5-min Rain = 0
KRO1 150326Z 19009KT 21/16 A2993 RMK A01 T02050156  RH  073%=      5-min Rain = 0
KRO1 150327Z 18008KT 21/16 A2993 RMK A01 T02050156  RH  074%=      5-min Rain = 0
KRO1 150328Z 18008KT 21/16 A2993 RMK A01 T02050156  RH  074%=      5-min Rain = 0
KRO1 150329Z 18008KT 21/16 A2993 RMK A01 T02050156  RH  074%=      5-min Rain = 0
KRO1 150330Z 19008KT 21/16 A2993 RMK A01 T02050156  RH  074%=      5-min Rain = 0
KRO1 150331Z 19008KT 21/16 A2993 RMK A01 T02050156  RH  074%=      5-min Rain = 0
KRO1 150332Z 18009KT 21/16 A2993 RMK A01 T02050157  RH  074%=      5-min Rain = 0
KRO1 150333Z 18008KT 21/16 A2993 RMK A01 T02050157  RH  074%=      5-min Rain = 0
KRO1 150334Z 19008KT 21/16 A2993 RMK A01 T02050156  RH  074%=      5-min Rain = 0
KRO1 150335Z 19008KT 21/16 A2993 RMK A01 T02050157  RH  074%=      5-min Rain = 0
KRO1 150336Z 19008KT 21/16 A2993 RMK A01 T02050156  RH  074%=      5-min Rain = 0
KRO1 150337Z 18009KT 20/16 A2993 RMK A01 T02040157  RH  074%=      5-min Rain = 0
KRO1 150338Z 19008KT 20/16 A2993 RMK A01 T02040157  RH  074%=      5-min Rain = 0
KRO1 150339Z 18009KT 20/16 A2993 RMK A01 T02040157  RH  074%=      5-min Rain = 0
KRO1 150340Z 18008KT 20/16 A2993 RMK A01 T02040157  RH  074%=      5-min Rain = 0
KRO1 150341Z 19008KT 20/16 A2993 RMK A01 T02040157  RH  074%=      5-min Rain = 0
KRO1 150342Z 18008KT 20/16 A2993 RMK A01 T02040157  RH  074%=      5-min Rain = 0
KRO1 150343Z 19008KT 20/16 A2993 RMK A01 T02040157  RH  074%=      5-min Rain = 0
KRO1 150344Z 18008KT 20/16 A2993 RMK A01 T02040157  RH  074%=      5-min Rain = 0
KRO1 150345Z 18007KT 20/16 A2993 RMK A01 T02040157  RH  074%=      5-min Rain = 0
KRO1 150346Z 18007KT 20/16 A2993 RMK A01 T02040157  RH  074%=      5-min Rain = 0
KRO1 150347Z 18007KT 20/16 A2993 RMK A01 T02040157  RH  074%=      5-min Rain = 0
KRO1 150348Z 18008KT 20/16 A2993 RMK A01 T02030157  RH  075%=      5-min Rain = 0
KRO1 150349Z 18008KT 20/16 A2994 RMK A01 T02030158  RH  075%=      5-min Rain = 0
KRO1 150350Z 18008KT 20/16 A2994 RMK A01 T02030157  RH  075%=      5-min Rain = 0
KRO1 150351Z 18007KT 20/16 A2994 RMK A01 T02030157  RH  075%=      5-min Rain = 0
KRO1 150352Z 18007KT 20/16 A2994 RMK A01 T02030157  RH  075%=      5-min Rain = 0
KRO1 150353Z 18007KT 20/16 A2994 RMK A01 T02030157  RH  075%=      5-min Rain = 0
KRO1 150354Z 18007KT 20/16 A2994 RMK A01 T02030157  RH  075%=      5-min Rain = 0
KRO1 150355Z 18008KT 20/16 A2994 RMK A01 T02020157  RH  075%=      5-min Rain = 0
KRO1 150356Z 18007KT 20/16 A2994 RMK A01 T02020157  RH  075%=      5-min Rain = 0
KRO1 150357Z 18008KT 20/16 A2994 RMK A01 T02020157  RH  075%=      5-min Rain = 0
KRO1 150358Z 18007KT 20/16 A2994 RMK A01 T02020158  RH  075%=      5-min Rain = 0
KRO1 150359Z 18007KT 20/16 A2994 RMK A01 T02020158  RH  075%=      5-min Rain = 0
KRO1 150400Z 18008KT 20/16 A2994 RMK A01 T02020158  RH  075%=      5-min Rain = 0
KRO1 150401Z 18007KT 20/16 A2994 RMK A01 T02020158  RH  076%=      5-min Rain = 0
KRO1 150402Z 18007KT 20/16 A2994 RMK A01 T02020158  RH  075%=      5-min Rain = 0
KRO1 150403Z 18008KT 20/16 A2994 RMK A01 T02020157  RH  076%=      5-min Rain = 0
KRO1 150404Z 18007KT 20/16 A2994 RMK A01 T02010157  RH  076%=      5-min Rain = 0
KRO1 150405Z 18007KT 20/16 A2994 RMK A01 T02010157  RH  076%=      5-min Rain = 0
KRO1 150406Z 18007KT 20/16 A2994 RMK A01 T02010157  RH  076%=      5-min Rain = 0
KRO1 150407Z 18008KT 20/16 A2994 RMK A01 T02010158  RH  076%=      5-min Rain = 0
KRO1 150408Z 18008KT 20/16 A2994 RMK A01 T02000157  RH  076%=      5-min Rain = 0
KRO1 150409Z 18007KT 20/16 A2994 RMK A01 T02000157  RH  076%=      5-min Rain = 0
KRO1 150410Z 18008KT 20/16 A2994 RMK A01 T02000157  RH  076%=      5-min Rain = 0
KRO1 150411Z 18007KT 20/16 A2994 RMK A01 T01990157  RH  077%=      5-min Rain = 0
KRO1 150412Z 18007KT 20/16 A2994 RMK A01 T01990157  RH  077%=      5-min Rain = 0
KRO1 150413Z 18008KT 20/16 A2994 RMK A01 T01990157  RH  077%=      5-min Rain = 0
KRO1 150414Z 18007KT 20/16 A2994 RMK A01 T01980157  RH  077%=      5-min Rain = 0
KRO1 150415Z 18008KT 20/16 A2994 RMK A01 T01980157  RH  077%=      5-min Rain = 0
KRO1 150416Z 18006KT 20/16 A2994 RMK A01 T01980157  RH  077%=      5-min Rain = 0
KRO1 150417Z 18007KT 20/16 A2994 RMK A01 T01980157  RH  077%=      5-min Rain = 0
KRO1 150418Z 18007KT 20/16 A2994 RMK A01 T01970157  RH  077%=      5-min Rain = 0
KRO1 150419Z 18007KT 20/16 A2994 RMK A01 T01970157  RH  078%=      5-min Rain = 0
KRO1 150420Z 18007KT 20/16 A2994 RMK A01 T01970157  RH  078%=      5-min Rain = 0
KRO1 150421Z 18007KT 20/16 A2994 RMK A01 T01970157  RH  078%=      5-min Rain = 0
KRO1 150422Z 18007KT 20/16 A2994 RMK A01 T01970157  RH  078%=      5-min Rain = 0
KRO1 150423Z 18007KT 20/16 A2994 RMK A01 T01970156  RH  077%=      5-min Rain = 0
KRO1 150424Z 18006KT 20/16 A2994 RMK A01 T01970157  RH  078%=      5-min Rain = 0
KRO1 150425Z 18006KT 20/16 A2994 RMK A01 T01960157  RH  078%=      5-min Rain = 0
KRO1 150426Z 18006KT 20/16 A2994 RMK A01 T01960157  RH  078%=      5-min Rain = 0
KRO1 150427Z 19007KT 20/16 A2994 RMK A01 T01960157  RH  078%=      5-min Rain = 0
KRO1 150428Z 19006KT 20/16 A2994 RMK A01 T01960157  RH  078%=      5-min Rain = 0
KRO1 150429Z 19007KT 20/16 A2994 RMK A01 T01960157  RH  078%=      5-min Rain = 0
KRO1 150430Z 19007KT 20/16 A2994 RMK A01 T01950157  RH  079%=      5-min Rain = 0
KRO1 150431Z 19007KT 20/16 A2994 RMK A01 T01960157  RH  079%=      5-min Rain = 0
KRO1 150432Z 19008KT 20/16 A2994 RMK A01 T01960157  RH  079%=      5-min Rain = 0
KRO1 150433Z 19008KT 20/16 A2994 RMK A01 T01960158  RH  078%=      5-min Rain = 0
KRO1 150434Z 19008KT 20/16 A2994 RMK A01 T01960158  RH  078%=      5-min Rain = 0
KRO1 150435Z 19008KT 20/16 A2994 RMK A01 T01960158  RH  078%=      5-min Rain = 0
KRO1 150436Z 19008KT 20/16 A2994 RMK A01 T01960158  RH  078%=      5-min Rain = 0
KRO1 150437Z 19008KT 20/16 A2994 RMK A01 T01970158  RH  078%=      5-min Rain = 0
KRO1 150438Z 19008KT 20/16 A2994 RMK A01 T01970158  RH  078%=      5-min Rain = 0
KRO1 150439Z 19008KT 20/16 A2994 RMK A01 T01970158  RH  078%=      5-min Rain = 0
KRO1 150440Z 19008KT 20/16 A2994 RMK A01 T01970158  RH  078%=      5-min Rain = 0
KRO1 150441Z 19009KT 20/16 A2994 RMK A01 T01970158  RH  078%=      5-min Rain = 0
KRO1 150442Z 19008KT 20/16 A2994 RMK A01 T01980158  RH  078%=      5-min Rain = 0
KRO1 150443Z 19008KT 20/16 A2994 RMK A01 T01980158  RH  078%=      5-min Rain = 0
KRO1 150444Z 19009KT 20/16 A2994 RMK A01 T01980158  RH  078%=      5-min Rain = 0
KRO1 150445Z 19008KT 20/16 A2994 RMK A01 T01980158  RH  078%=      5-min Rain = 0
KRO1 150446Z 19009KT 20/16 A2994 RMK A01 T01980158  RH  078%=      5-min Rain = 0
KRO1 150447Z 19009KT 20/16 A2994 RMK A01 T01990158  RH  078%=      5-min Rain = 0
KRO1 150448Z 19009KT 20/16 A2994 RMK A01 T01990158  RH  077%=      5-min Rain = 0
KRO1 150449Z 19009KT 20/16 A2994 RMK A01 T01990158  RH  077%=      5-min Rain = 0
KRO1 150450Z 19009KT 20/16 A2994 RMK A01 T01990158  RH  077%=      5-min Rain = 0
KRO1 150451Z 19009KT 20/16 A2994 RMK A01 T02000158  RH  077%=      5-min Rain = 0
KRO1 150452Z 19009KT 20/16 A2994 RMK A01 T02000158  RH  077%=      5-min Rain = 0
KRO1 150453Z 19009KT 20/16 A2994 RMK A01 T01990158  RH  077%=      5-min Rain = 0
KRO1 150454Z 19009KT 20/16 A2994 RMK A01 T02000158  RH  077%=      5-min Rain = 0
KRO1 150455Z 19009KT 20/16 A2994 RMK A01 T02000158  RH  077%=      5-min Rain = 0
KRO1 150456Z 19009KT 20/16 A2994 RMK A01 T02000158  RH  077%=      5-min Rain = 0
KRO1 150457Z 19009KT 20/16 A2994 RMK A01 T02000158  RH  077%=      5-min Rain = 0
KRO1 150458Z 19009KT 20/16 A2994 RMK A01 T02000158  RH  077%=      5-min Rain = 0
KRO1 150459Z 19008KT 20/16 A2994 RMK A01 T02000159  RH  077%=      5-min Rain = 0

Page generated in 0.1441 seconds.